Time,TemperatureF,DewpointF,PressureIn,WindDirection,WindDirectionDegrees,WindSpeedMPH,WindSpeedGustMPH,Humidity,HourlyPrecipIn,Conditions,Clouds,dailyrainin,SoftwareType,DateUTC
2013-05-12 00:00:00,40.8,40.8,29.06,NW,326,0.0,0.0,100,0.00,,---,0.00,VWS V14.00,2013-05-12 05:00:00,
2013-05-12 00:01:00,40.8,40.8,29.06,NW,326,0.0,0.0,100,0.00,,---,0.00,VWS V14.00,2013-05-12 05:01:00,
2013-05-12 00:02:00,40.8,40.8,29.06,NW,326,0.0,0.0,100,0.00,,---,0.00,VWS V14.00,2013-05-12 05:02:00,
2013-05-12 00:03:00,40.8,40.8,29.06,NW,326,0.0,0.0,100,0.00,,---,0.00,VWS V14.00,2013-05-12 05:03:00,
2013-05-12 00:04:00,40.8,40.8,29.06,NW,326,0.0,0.0,100,0.00,,---,0.00,VWS V14.00,2013-05-12 05:04:00,
2013-05-12 00:05:00,40.8,40.8,29.06,NW,326,0.0,0.0,100,0.00,,---,0.00,VWS V14.00,2013-05-12 05:05:00,
2013-05-12 00:06:00,40.6,40.6,29.06,NW,326,0.0,0.0,100,0.00,,---,0.00,VWS V14.00,2013-05-12 05:06:00,
2013-05-12 00:07:00,40.6,40.6,29.06,NW,326,0.0,0.0,100,0.00,,---,0.00,VWS V14.00,2013-05-12 05:07:00,
2013-05-12 00:08:00,40.6,40.6,29.06,NW,326,0.0,0.0,100,0.00,,---,0.00,VWS V14.00,2013-05-12 05:08:00,
2013-05-12 00:09:00,40.8,40.8,29.06,NW,326,0.0,0.0,100,0.00,,---,0.00,VWS V14.00,2013-05-12 05:09:00,
2013-05-12 00:10:00,41.0,41.0,29.06,NW,326,0.0,0.0,100,0.00,,---,0.00,VWS V14.00,2013-05-12 05:10:00,
2013-05-12 00:11:00,41.2,41.2,29.06,NW,326,0.0,0.0,100,0.00,,---,0.00,VWS V14.00,2013-05-12 05:11:00,
2013-05-12 00:12:00,41.2,41.2,29.06,NW,326,0.0,0.0,100,0.00,,---,0.00,VWS V14.00,2013-05-12 05:12:00,
2013-05-12 00:13:00,41.2,41.2,29.06,NW,326,0.0,0.0,100,0.00,,---,0.00,VWS V14.00,2013-05-12 05:13:00,
2013-05-12 00:14:00,41.4,41.4,29.06,NW,326,0.0,0.0,100,0.00,,---,0.00,VWS V14.00,2013-05-12 05:14:00,
2013-05-12 00:15:00,41.4,41.4,29.06,NW,326,0.0,0.0,100,0.00,,---,0.00,VWS V14.00,2013-05-12 05:15:00,
2013-05-12 00:16:00,41.5,41.5,29.06,NW,326,0.0,0.0,100,0.00,,---,0.00,VWS V14.00,2013-05-12 05:16:00,
2013-05-12 00:17:00,41.5,41.5,29.06,NW,326,0.0,0.0,100,0.00,,---,0.00,VWS V14.00,2013-05-12 05:17:00,
2013-05-12 00:18:00,41.5,41.5,29.06,NW,326,0.0,0.0,100,0.00,,---,0.00,VWS V14.00,2013-05-12 05:18:00,
2013-05-12 00:19:00,41.5,41.5,29.06,NW,326,0.0,0.0,100,0.00,,---,0.00,VWS V14.00,2013-05-12 05:19:00,
2013-05-12 00:20:00,41.7,41.7,29.06,NW,326,0.0,0.0,100,0.00,,---,0.00,VWS V14.00,2013-05-12 05:20:00,
2013-05-12 00:21:00,42.1,42.1,29.06,NW,326,0.0,0.0,100,0.00,,---,0.00,VWS V14.00,2013-05-12 05:21:00,
2013-05-12 00:22:00,42.1,42.1,29.06,NW,326,0.0,0.0,100,0.00,,---,0.00,VWS V14.00,2013-05-12 05:22:00,
2013-05-12 00:23:00,42.1,42.1,29.06,NW,326,0.0,0.0,100,0.00,,---,0.00,VWS V14.00,2013-05-12 05:23:00,
2013-05-12 00:24:00,42.3,42.3,29.06,NW,326,0.0,0.0,100,0.00,,---,0.00,VWS V14.00,2013-05-12 05:24:00,
2013-05-12 00:25:00,42.3,42.3,29.06,NW,326,0.0,0.0,100,0.00,,---,0.00,VWS V14.00,2013-05-12 05:25:00,
2013-05-12 00:26:00,42.4,42.4,29.06,NW,326,0.0,0.0,100,0.00,,---,0.00,VWS V14.00,2013-05-12 05:26:00,
2013-05-12 00:27:00,42.3,42.3,29.06,NW,326,0.0,0.0,100,0.00,,---,0.00,VWS V14.00,2013-05-12 05:27:00,
2013-05-12 00:28:00,42.4,42.4,29.06,NW,326,0.0,0.0,100,0.00,,---,0.00,VWS V14.00,2013-05-12 05:28:00,
2013-05-12 00:29:00,42.4,42.4,29.06,NW,326,0.0,0.0,100,0.00,,---,0.00,VWS V14.00,2013-05-12 05:29:00,
2013-05-12 00:30:00,42.4,42.4,29.06,NW,326,0.0,0.0,100,0.00,,---,0.00,VWS V14.00,2013-05-12 05:30:00,
2013-05-12 00:31:00,42.6,42.6,29.06,NW,326,0.0,0.0,100,0.00,,---,0.00,VWS V14.00,2013-05-12 05:31:00,
2013-05-12 00:32:00,42.6,42.6,29.06,NW,326,0.0,0.0,100,0.00,,---,0.00,VWS V14.00,2013-05-12 05:32:00,
2013-05-12 00:33:00,42.6,42.6,29.06,NW,326,0.0,0.0,100,0.00,,---,0.00,VWS V14.00,2013-05-12 05:33:00,
2013-05-12 00:34:00,42.6,42.6,29.06,NW,326,0.0,0.0,100,0.00,,---,0.00,VWS V14.00,2013-05-12 05:34:00,
2013-05-12 00:35:00,42.8,42.8,29.06,NW,326,0.0,0.0,100,0.00,,---,0.00,VWS V14.00,2013-05-12 05:35:00,
2013-05-12 00:36:00,42.6,42.6,29.06,NW,326,0.0,0.0,100,0.00,,---,0.00,VWS V14.00,2013-05-12 05:36:00,
2013-05-12 00:37:00,42.8,42.8,29.06,NW,326,0.0,0.0,100,0.00,,---,0.00,VWS V14.00,2013-05-12 05:37:00,
2013-05-12 00:38:00,42.8,42.8,29.06,NW,326,0.0,0.0,100,0.00,,---,0.00,VWS V14.00,2013-05-12 05:38:00,
2013-05-12 00:39:00,42.6,42.6,29.06,NW,326,0.0,0.0,100,0.00,,---,0.00,VWS V14.00,2013-05-12 05:39:00,
2013-05-12 00:40:00,42.6,42.6,29.06,NW,326,0.0,0.0,100,0.00,,---,0.00,VWS V14.00,2013-05-12 05:40:00,
2013-05-12 00:41:00,42.6,42.6,29.06,NW,326,0.0,0.0,100,0.00,,---,0.00,VWS V14.00,2013-05-12 05:41:00,
2013-05-12 00:42:00,42.6,42.6,29.06,NW,326,0.0,0.0,100,0.00,,---,0.00,VWS V14.00,2013-05-12 05:42:00,
2013-05-12 00:43:00,42.6,42.6,29.06,NW,326,0.0,0.0,100,0.00,,---,0.00,VWS V14.00,2013-05-12 05:43:00,
2013-05-12 00:44:00,42.6,42.6,29.06,NW,326,0.0,0.0,100,0.00,,---,0.00,VWS V14.00,2013-05-12 05:44:00,
2013-05-12 00:45:00,42.6,42.6,29.06,NW,326,0.0,0.0,100,0.00,,---,0.00,VWS V14.00,2013-05-12 05:45:00,
2013-05-12 00:46:00,42.6,42.6,29.06,NW,326,0.0,0.0,100,0.00,,---,0.00,VWS V14.00,2013-05-12 05:46:00,
2013-05-12 00:47:00,42.4,42.4,29.06,NW,326,0.0,0.0,100,0.00,,---,0.00,VWS V14.00,2013-05-12 05:47:00,
2013-05-12 00:48:00,42.4,42.4,29.06,NW,326,0.0,0.0,100,0.00,,---,0.00,VWS V14.00,2013-05-12 05:48:00,
2013-05-12 00:49:00,42.6,42.6,29.06,NW,326,0.0,0.0,100,0.00,,---,0.00,VWS V14.00,2013-05-12 05:49:00,
2013-05-12 00:50:00,42.4,42.4,29.06,NW,326,0.0,0.0,100,0.00,,---,0.00,VWS V14.00,2013-05-12 05:50:00,
2013-05-12 00:51:00,42.4,42.4,29.06,NW,326,0.0,0.0,100,0.00,,---,0.00,VWS V14.00,2013-05-12 05:51:00,
2013-05-12 00:52:00,42.4,42.4,29.06,NW,326,0.0,0.0,100,0.00,,---,0.00,VWS V14.00,2013-05-12 05:52:00,
2013-05-12 00:53:00,42.4,42.4,29.06,NW,326,0.0,0.0,100,0.00,,---,0.00,VWS V14.00,2013-05-12 05:53:00,
2013-05-12 00:54:00,42.4,42.4,29.06,NW,326,0.0,0.0,100,0.00,,---,0.00,VWS V14.00,2013-05-12 05:54:00,
2013-05-12 00:55:00,42.4,42.4,29.06,NW,326,0.0,0.0,100,0.00,,---,0.00,VWS V14.00,2013-05-12 05:55:00,
2013-05-12 00:56:00,42.4,42.4,29.06,NW,326,0.0,0.0,100,0.00,,---,0.00,VWS V14.00,2013-05-12 05:56:00,
2013-05-12 00:57:00,42.4,42.4,29.06,NW,326,0.0,0.0,100,0.00,,---,0.00,VWS V14.00,2013-05-12 05:57:00,
2013-05-12 00:58:00,42.4,42.4,29.06,NW,326,0.0,0.0,100,0.00,,---,0.00,VWS V14.00,2013-05-12 05:58:00,
2013-05-12 00:59:00,42.4,42.4,29.06,NW,326,0.0,0.0,100,0.00,,---,0.00,VWS V14.00,2013-05-12 05:59:00,
2013-05-12 01:00:00,42.4,42.4,29.06,NW,326,0.0,0.0,100,0.00,,---,0.00,VWS V14.00,2013-05-12 06:00:00,
2013-05-12 01:01:00,42.1,42.1,29.06,NW,326,0.0,0.0,100,0.00,,---,0.00,VWS V14.00,2013-05-12 06:01:00,
2013-05-12 01:02:00,42.3,42.3,29.06,NW,326,0.0,0.0,100,0.00,,---,0.00,VWS V14.00,2013-05-12 06:02:00,
2013-05-12 01:03:00,42.3,42.3,29.06,NW,326,0.0,0.0,100,0.00,,---,0.00,VWS V14.00,2013-05-12 06:03:00,
2013-05-12 01:04:00,42.1,42.1,29.06,NW,326,0.0,0.0,100,0.00,,---,0.00,VWS V14.00,2013-05-12 06:04:00,
2013-05-12 01:05:00,42.1,42.1,29.06,NW,326,0.0,0.0,100,0.00,,---,0.00,VWS V14.00,2013-05-12 06:05:00,
2013-05-12 01:06:00,41.9,41.9,29.06,NW,326,0.0,0.0,100,0.00,,---,0.00,VWS V14.00,2013-05-12 06:06:00,
2013-05-12 01:07:00,41.9,41.9,29.06,NW,326,0.0,0.0,100,0.00,,---,0.00,VWS V14.00,2013-05-12 06:07:00,
2013-05-12 01:08:00,41.9,41.9,29.06,NW,326,0.0,0.0,100,0.00,,---,0.00,VWS V14.00,2013-05-12 06:08:00,
2013-05-12 01:09:00,41.9,41.9,29.06,NW,326,0.0,0.0,100,0.00,,---,0.00,VWS V14.00,2013-05-12 06:09:00,
2013-05-12 01:10:00,41.9,41.9,29.06,NW,326,0.0,0.0,100,0.00,,---,0.00,VWS V14.00,2013-05-12 06:10:00,
2013-05-12 01:11:00,41.7,41.7,29.06,NW,326,0.0,0.0,100,0.00,,---,0.00,VWS V14.00,2013-05-12 06:11:00,
2013-05-12 01:12:00,41.9,41.9,29.06,NW,326,0.0,0.0,100,0.00,,---,0.00,VWS V14.00,2013-05-12 06:12:00,
2013-05-12 01:13:00,41.9,41.9,29.06,NW,326,0.0,0.0,100,0.00,,---,0.00,VWS V14.00,2013-05-12 06:13:00,
2013-05-12 01:14:00,41.7,41.7,29.06,NW,326,0.0,0.0,100,0.00,,---,0.00,VWS V14.00,2013-05-12 06:14:00,
2013-05-12 01:15:00,41.7,41.7,29.06,NW,326,0.0,0.0,100,0.00,,---,0.00,VWS V14.00,2013-05-12 06:15:00,
2013-05-12 01:16:00,41.5,41.5,29.06,NW,326,0.0,0.0,100,0.00,,---,0.00,VWS V14.00,2013-05-12 06:16:00,
2013-05-12 01:17:00,41.7,41.7,29.06,NW,326,0.0,0.0,100,0.00,,---,0.00,VWS V14.00,2013-05-12 06:17:00,
2013-05-12 01:18:00,41.5,41.5,29.06,NW,326,0.0,0.0,100,0.00,,---,0.00,VWS V14.00,2013-05-12 06:18:00,
2013-05-12 01:19:00,41.5,41.5,29.06,NW,326,0.0,0.0,100,0.00,,---,0.00,VWS V14.00,2013-05-12 06:19:00,
2013-05-12 01:20:00,41.5,41.5,29.06,NW,326,0.0,0.0,100,0.00,,---,0.00,VWS V14.00,2013-05-12 06:20:00,
2013-05-12 01:21:00,41.4,41.4,29.06,NW,326,0.0,0.0,100,0.00,,---,0.00,VWS V14.00,2013-05-12 06:21:00,
2013-05-12 01:22:00,41.4,41.4,29.06,NW,326,0.0,0.0,100,0.00,,---,0.00,VWS V14.00,2013-05-12 06:22:00,
2013-05-12 01:23:00,41.4,41.4,29.06,NW,326,0.0,0.0,100,0.00,,---,0.00,VWS V14.00,2013-05-12 06:23:00,
2013-05-12 01:24:00,41.4,41.4,29.06,NW,326,0.0,0.0,100,0.00,,---,0.00,VWS V14.00,2013-05-12 06:24:00,
2013-05-12 01:25:00,41.2,41.2,29.06,NW,326,0.0,0.0,100,0.00,,---,0.00,VWS V14.00,2013-05-12 06:25:00,
2013-05-12 01:26:00,41.2,41.2,29.06,NW,326,0.0,0.0,100,0.00,,---,0.00,VWS V14.00,2013-05-12 06:26:00,
2013-05-12 01:27:00,41.2,41.2,29.06,NW,326,0.0,0.0,100,0.00,,---,0.00,VWS V14.00,2013-05-12 06:27:00,
2013-05-12 01:28:00,41.2,41.2,29.06,NW,326,0.0,0.0,100,0.00,,---,0.00,VWS V14.00,2013-05-12 06:28:00,
2013-05-12 01:29:00,41.2,41.2,29.06,NW,326,0.0,0.0,100,0.00,,---,0.00,VWS V14.00,2013-05-12 06:29:00,
2013-05-12 01:30:00,40.8,40.8,29.06,NW,326,0.0,0.0,100,0.00,,---,0.00,VWS V14.00,2013-05-12 06:30:00,
2013-05-12 01:31:00,40.8,40.8,29.06,NW,326,0.0,0.0,100,0.00,,---,0.00,VWS V14.00,2013-05-12 06:31:00,
2013-05-12 01:32:00,40.8,40.8,29.06,NW,326,0.0,0.0,100,0.00,,---,0.00,VWS V14.00,2013-05-12 06:32:00,
2013-05-12 01:33:00,40.8,40.8,29.06,NW,326,0.0,0.0,100,0.00,,---,0.00,VWS V14.00,2013-05-12 06:33:00,
2013-05-12 01:34:00,40.6,40.6,29.06,NW,326,0.0,0.0,100,0.00,,---,0.00,VWS V14.00,2013-05-12 06:34:00,
2013-05-12 01:35:00,40.6,40.6,29.06,NW,326,0.0,0.0,100,0.00,,---,0.00,VWS V14.00,2013-05-12 06:35:00,
2013-05-12 01:36:00,40.6,40.6,29.06,NW,326,0.0,0.0,100,0.00,,---,0.00,VWS V14.00,2013-05-12 06:36:00,
2013-05-12 01:37:00,40.6,40.6,29.06,NW,326,0.0,0.0,100,0.00,,---,0.00,VWS V14.00,2013-05-12 06:37:00,
2013-05-12 01:38:00,40.6,40.6,29.06,NW,326,0.0,0.0,100,0.00,,---,0.00,VWS V14.00,2013-05-12 06:38:00,
2013-05-12 01:39:00,40.6,40.6,29.06,NW,326,0.0,0.0,100,0.00,,---,0.00,VWS V14.00,2013-05-12 06:39:00,
2013-05-12 01:40:00,40.6,40.6,29.06,NW,326,0.0,0.0,100,0.00,,---,0.00,VWS V14.00,2013-05-12 06:40:00,
2013-05-12 01:41:00,40.3,40.3,29.06,NW,326,0.0,0.0,100,0.00,,---,0.00,VWS V14.00,2013-05-12 06:41:00,
2013-05-12 01:42:00,40.6,40.6,29.06,NW,326,0.0,0.0,100,0.00,,---,0.00,VWS V14.00,2013-05-12 06:42:00,
2013-05-12 01:43:00,40.3,40.3,29.06,NW,326,0.0,0.0,100,0.00,,---,0.00,VWS V14.00,2013-05-12 06:43:00,
2013-05-12 01:44:00,40.3,40.3,29.06,NW,326,0.0,0.0,100,0.00,,---,0.00,VWS V14.00,2013-05-12 06:44:00,
2013-05-12 01:45:00,40.3,40.3,29.06,NW,326,0.0,0.0,100,0.00,,---,0.00,VWS V14.00,2013-05-12 06:45:00,
2013-05-12 01:46:00,40.3,40.3,29.06,NW,326,0.0,0.0,100,0.00,,---,0.00,VWS V14.00,2013-05-12 06:46:00,
2013-05-12 01:47:00,40.3,40.3,29.06,NW,326,0.0,0.0,100,0.00,,---,0.00,VWS V14.00,2013-05-12 06:47:00,
2013-05-12 01:48:00,40.3,40.3,29.06,NW,326,0.0,0.0,100,0.00,,---,0.00,VWS V14.00,2013-05-12 06:48:00,
2013-05-12 01:49:00,40.3,40.3,29.06,NW,326,0.0,0.0,100,0.00,,---,0.00,VWS V14.00,2013-05-12 06:49:00,
2013-05-12 01:50:00,40.3,40.3,29.06,NW,326,0.0,0.0,100,0.00,,---,0.00,VWS V14.00,2013-05-12 06:50:00,
2013-05-12 01:51:00,40.5,40.5,29.06,NW,326,0.0,0.0,100,0.00,,---,0.00,VWS V14.00,2013-05-12 06:51:00,
2013-05-12 01:52:00,40.5,40.5,29.06,NW,326,0.0,0.0,100,0.00,,---,0.00,VWS V14.00,2013-05-12 06:52:00,
2013-05-12 01:53:00,40.5,40.5,29.06,NW,326,0.0,0.0,100,0.00,,---,0.00,VWS V14.00,2013-05-12 06:53:00,
2013-05-12 01:54:00,40.5,40.5,29.06,NW,326,0.0,0.0,100,0.00,,---,0.00,VWS V14.00,2013-05-12 06:54:00,
2013-05-12 01:55:00,40.5,40.5,29.06,NW,326,0.0,0.0,100,0.00,,---,0.00,VWS V14.00,2013-05-12 06:55:00,
2013-05-12 01:56:00,40.5,40.5,29.06,NW,326,0.0,0.0,100,0.00,,---,0.00,VWS V14.00,2013-05-12 06:56:00,
2013-05-12 01:57:00,40.5,40.5,29.06,NW,326,0.0,0.0,100,0.00,,---,0.00,VWS V14.00,2013-05-12 06:57:00,
2013-05-12 01:58:00,40.5,40.5,29.06,NW,326,0.0,0.0,100,0.00,,---,0.00,VWS V14.00,2013-05-12 06:58:00,
2013-05-12 01:59:00,40.5,40.5,29.06,NW,326,0.0,0.0,100,0.00,,---,0.00,VWS V14.00,2013-05-12 06:59:00,
2013-05-12 02:00:00,40.5,40.5,29.06,NW,326,0.0,0.0,100,0.00,,---,0.00,VWS V14.00,2013-05-12 07:00:00,
2013-05-12 02:01:00,40.5,40.5,29.06,NW,326,0.0,0.0,100,0.00,,---,0.00,VWS V14.00,2013-05-12 07:01:00,
2013-05-12 02:02:00,40.5,40.5,29.06,NW,326,0.0,0.0,100,0.00,,---,0.00,VWS V14.00,2013-05-12 07:02:00,
2013-05-12 02:03:00,40.5,40.5,29.06,NW,326,0.0,0.0,100,0.00,,---,0.00,VWS V14.00,2013-05-12 07:03:00,
2013-05-12 02:04:00,40.5,40.5,29.06,NW,326,0.0,0.0,100,0.00,,---,0.00,VWS V14.00,2013-05-12 07:04:00,
2013-05-12 02:05:00,40.5,40.5,29.06,NW,326,0.0,0.0,100,0.00,,---,0.00,VWS V14.00,2013-05-12 07:05:00,
2013-05-12 02:06:00,40.5,40.5,29.06,NW,326,0.0,0.0,100,0.00,,---,0.00,VWS V14.00,2013-05-12 07:06:00,
2013-05-12 02:07:00,40.5,40.5,29.06,NW,326,0.0,0.0,100,0.00,,---,0.00,VWS V14.00,2013-05-12 07:07:00,
2013-05-12 02:08:00,40.5,40.5,29.06,NW,326,0.0,0.0,100,0.00,,---,0.00,VWS V14.00,2013-05-12 07:08:00,
2013-05-12 02:09:00,40.5,40.5,29.06,NW,326,0.0,0.0,100,0.00,,---,0.00,VWS V14.00,2013-05-12 07:09:00,
2013-05-12 02:10:00,40.5,40.5,29.06,NW,326,0.0,0.0,100,0.00,,---,0.00,VWS V14.00,2013-05-12 07:10:00,
2013-05-12 02:11:00,40.5,40.5,29.06,NW,326,0.0,0.0,100,0.00,,---,0.00,VWS V14.00,2013-05-12 07:11:00,
2013-05-12 02:12:00,40.5,40.5,29.06,NW,326,0.0,0.0,100,0.00,,---,0.00,VWS V14.00,2013-05-12 07:12:00,
2013-05-12 02:13:00,40.5,40.5,29.06,NW,326,0.0,0.0,100,0.00,,---,0.00,VWS V14.00,2013-05-12 07:13:00,
2013-05-12 02:14:00,40.5,40.5,29.06,NW,326,0.0,0.0,100,0.00,,---,0.00,VWS V14.00,2013-05-12 07:14:00,
2013-05-12 02:15:00,40.5,40.5,29.06,NW,326,0.0,0.0,100,0.00,,---,0.00,VWS V14.00,2013-05-12 07:15:00,
2013-05-12 02:16:00,40.3,40.3,29.06,NW,326,0.0,0.0,100,0.00,,---,0.00,VWS V14.00,2013-05-12 07:16:00,
2013-05-12 02:17:00,40.3,40.3,29.06,NW,326,0.0,0.0,100,0.00,,---,0.00,VWS V14.00,2013-05-12 07:17:00,
2013-05-12 02:18:00,40.3,40.3,29.06,NW,326,0.0,0.0,100,0.00,,---,0.00,VWS V14.00,2013-05-12 07:18:00,
2013-05-12 02:19:00,40.3,40.3,29.06,NW,326,0.0,0.0,100,0.00,,---,0.00,VWS V14.00,2013-05-12 07:19:00,
2013-05-12 02:20:00,40.3,40.3,29.06,NW,326,0.0,0.0,100,0.00,,---,0.00,VWS V14.00,2013-05-12 07:20:00,
2013-05-12 02:21:00,40.3,40.3,29.06,NW,326,0.0,0.0,100,0.00,,---,0.00,VWS V14.00,2013-05-12 07:21:00,
2013-05-12 02:22:00,40.3,40.3,29.06,NW,326,0.0,0.0,100,0.00,,---,0.00,VWS V14.00,2013-05-12 07:22:00,
2013-05-12 02:23:00,40.3,40.3,29.06,NW,326,0.0,0.0,100,0.00,,---,0.00,VWS V14.00,2013-05-12 07:23:00,
2013-05-12 02:24:00,40.3,40.3,29.06,NW,326,0.0,0.0,100,0.00,,---,0.00,VWS V14.00,2013-05-12 07:24:00,
2013-05-12 02:25:00,40.3,40.3,29.06,NW,326,0.0,0.0,100,0.00,,---,0.00,VWS V14.00,2013-05-12 07:25:00,
2013-05-12 02:26:00,40.6,40.6,29.06,NW,326,0.0,0.0,100,0.00,,---,0.00,VWS V14.00,2013-05-12 07:26:00,
2013-05-12 02:27:00,40.6,40.6,29.06,NW,326,0.0,0.0,100,0.00,,---,0.00,VWS V14.00,2013-05-12 07:27:00,
2013-05-12 02:28:00,40.6,40.6,29.06,NW,326,0.0,0.0,100,0.00,,---,0.00,VWS V14.00,2013-05-12 07:28:00,
2013-05-12 02:29:00,40.6,40.6,29.06,NW,326,0.0,0.0,100,0.00,,---,0.00,VWS V14.00,2013-05-12 07:29:00,
2013-05-12 02:30:00,40.6,40.6,29.06,NW,326,0.0,0.0,100,0.00,,---,0.00,VWS V14.00,2013-05-12 07:30:00,
2013-05-12 02:31:00,40.6,40.6,29.06,NW,326,0.0,0.0,100,0.00,,---,0.00,VWS V14.00,2013-05-12 07:31:00,
2013-05-12 02:32:00,40.6,40.6,29.06,NW,326,0.0,0.0,100,0.00,,---,0.00,VWS V14.00,2013-05-12 07:32:00,
2013-05-12 02:33:00,40.6,40.6,29.06,NW,326,0.0,0.0,100,0.00,,---,0.00,VWS V14.00,2013-05-12 07:33:00,
2013-05-12 02:34:00,40.6,40.6,29.06,NW,326,0.0,0.0,100,0.00,,---,0.00,VWS V14.00,2013-05-12 07:34:00,
2013-05-12 02:35:00,40.6,40.6,29.06,NW,326,0.0,0.0,100,0.00,,---,0.00,VWS V14.00,2013-05-12 07:35:00,
2013-05-12 02:36:00,40.6,40.6,29.06,NW,326,0.0,0.0,100,0.00,,---,0.00,VWS V14.00,2013-05-12 07:36:00,
2013-05-12 02:37:00,40.6,40.6,29.06,NW,326,0.0,0.0,100,0.00,,---,0.00,VWS V14.00,2013-05-12 07:37:00,
2013-05-12 02:38:00,40.6,40.6,29.06,NW,326,0.0,0.0,100,0.00,,---,0.00,VWS V14.00,2013-05-12 07:38:00,
2013-05-12 02:39:00,40.6,40.6,29.06,NW,326,0.0,0.0,100,0.00,,---,0.00,VWS V14.00,2013-05-12 07:39:00,
2013-05-12 02:40:00,40.6,40.6,29.06,NW,326,0.0,0.0,100,0.00,,---,0.00,VWS V14.00,2013-05-12 07:40:00,
2013-05-12 02:41:00,40.3,40.3,29.06,NW,326,0.0,0.0,100,0.00,,---,0.00,VWS V14.00,2013-05-12 07:41:00,
2013-05-12 02:42:00,40.5,40.5,29.06,NW,326,0.0,0.0,100,0.00,,---,0.00,VWS V14.00,2013-05-12 07:42:00,
2013-05-12 02:43:00,40.5,40.5,29.06,NW,326,0.0,0.0,100,0.00,,---,0.00,VWS V14.00,2013-05-12 07:43:00,
2013-05-12 02:44:00,40.3,40.3,29.06,NW,326,0.0,0.0,100,0.00,,---,0.00,VWS V14.00,2013-05-12 07:44:00,
2013-05-12 02:45:00,40.3,40.3,29.06,NW,326,0.0,0.0,100,0.00,,---,0.00,VWS V14.00,2013-05-12 07:45:00,
2013-05-12 02:46:00,40.3,40.3,29.06,NW,326,0.0,0.0,100,0.00,,---,0.00,VWS V14.00,2013-05-12 07:46:00,
2013-05-12 02:47:00,40.3,40.3,29.06,NW,326,0.0,0.0,100,0.00,,---,0.00,VWS V14.00,2013-05-12 07:47:00,
2013-05-12 02:48:00,40.3,40.3,29.06,NW,326,0.0,0.0,100,0.00,,---,0.00,VWS V14.00,2013-05-12 07:48:00,
2013-05-12 02:49:00,40.3,40.3,29.06,NW,326,0.0,0.0,100,0.00,,---,0.00,VWS V14.00,2013-05-12 07:49:00,
2013-05-12 02:50:00,40.3,40.3,29.06,NW,326,0.0,0.0,100,0.00,,---,0.00,VWS V14.00,2013-05-12 07:50:00,
2013-05-12 02:51:00,40.1,40.1,29.06,NW,326,0.0,0.0,100,0.00,,---,0.00,VWS V14.00,2013-05-12 07:51:00,
2013-05-12 02:52:00,40.1,40.1,29.06,NW,326,0.0,0.0,100,0.00,,---,0.00,VWS V14.00,2013-05-12 07:52:00,
2013-05-12 02:53:00,40.1,40.1,29.06,NW,326,0.0,0.0,100,0.00,,---,0.00,VWS V14.00,2013-05-12 07:53:00,
2013-05-12 02:54:00,40.1,40.1,29.06,NW,326,0.0,0.0,100,0.00,,---,0.00,VWS V14.00,2013-05-12 07:54:00,
2013-05-12 02:55:00,40.1,40.1,29.06,NW,326,0.0,0.0,100,0.00,,---,0.00,VWS V14.00,2013-05-12 07:55:00,
2013-05-12 02:56:00,40.1,40.1,29.06,NW,326,0.0,0.0,100,0.00,,---,0.00,VWS V14.00,2013-05-12 07:56:00,
2013-05-12 02:57:00,40.1,40.1,29.06,NW,326,0.0,0.0,100,0.00,,---,0.00,VWS V14.00,2013-05-12 07:57:00,
2013-05-12 02:58:00,40.1,40.1,29.06,NW,326,0.0,0.0,100,0.00,,---,0.00,VWS V14.00,2013-05-12 07:58:00,
2013-05-12 02:59:00,40.1,40.1,29.06,NW,326,0.0,0.0,100,0.00,,---,0.00,VWS V14.00,2013-05-12 07:59:00,
2013-05-12 03:00:00,40.1,40.1,29.06,NW,326,0.0,0.0,100,0.00,,---,0.00,VWS V14.00,2013-05-12 08:00:00,
2013-05-12 03:01:00,39.9,39.9,29.06,NW,326,0.0,0.0,100,0.00,,---,0.00,VWS V14.00,2013-05-12 08:01:00,
2013-05-12 03:02:00,40.1,40.1,29.06,NW,326,0.0,0.0,100,0.00,,---,0.00,VWS V14.00,2013-05-12 08:02:00,
2013-05-12 03:03:00,40.1,40.1,29.06,NW,326,0.0,0.0,100,0.00,,---,0.00,VWS V14.00,2013-05-12 08:03:00,
2013-05-12 03:04:00,39.9,39.9,29.06,NW,326,0.0,0.0,100,0.00,,---,0.00,VWS V14.00,2013-05-12 08:04:00,
2013-05-12 03:05:00,39.9,39.9,29.06,NW,326,0.0,0.0,100,0.00,,---,0.00,VWS V14.00,2013-05-12 08:05:00,
2013-05-12 03:06:00,39.9,39.9,29.06,NW,326,0.0,0.0,100,0.00,,---,0.00,VWS V14.00,2013-05-12 08:06:00,
2013-05-12 03:07:00,39.9,39.9,29.06,NW,326,0.0,0.0,100,0.00,,---,0.00,VWS V14.00,2013-05-12 08:07:00,
2013-05-12 03:08:00,39.9,39.9,29.06,NW,326,0.0,0.0,100,0.00,,---,0.00,VWS V14.00,2013-05-12 08:08:00,
2013-05-12 03:09:00,39.9,39.9,29.06,NW,326,0.0,0.0,100,0.00,,---,0.00,VWS V14.00,2013-05-12 08:09:00,
2013-05-12 03:10:00,39.7,39.7,29.06,NW,326,0.0,0.0,100,0.00,,---,0.00,VWS V14.00,2013-05-12 08:10:00,
2013-05-12 03:11:00,39.7,39.7,29.06,NW,326,0.0,0.0,100,0.00,,---,0.00,VWS V14.00,2013-05-12 08:11:00,
2013-05-12 03:12:00,39.7,39.7,29.06,NW,326,0.0,0.0,100,0.00,,---,0.00,VWS V14.00,2013-05-12 08:12:00,
2013-05-12 03:13:00,39.7,39.7,29.06,NW,326,0.0,0.0,100,0.00,,---,0.00,VWS V14.00,2013-05-12 08:13:00,
2013-05-12 03:14:00,39.7,39.7,29.06,NW,326,0.0,0.0,100,0.00,,---,0.00,VWS V14.00,2013-05-12 08:14:00,
2013-05-12 03:15:00,39.7,39.7,29.06,NW,326,0.0,0.0,100,0.00,,---,0.00,VWS V14.00,2013-05-12 08:15:00,
2013-05-12 03:16:00,39.6,39.6,29.06,NW,326,0.0,0.0,100,0.00,,---,0.00,VWS V14.00,2013-05-12 08:16:00,
2013-05-12 03:17:00,39.7,39.7,29.06,NW,326,0.0,0.0,100,0.00,,---,0.00,VWS V14.00,2013-05-12 08:17:00,
2013-05-12 03:18:00,39.6,39.6,29.06,NW,326,0.0,0.0,100,0.00,,---,0.00,VWS V14.00,2013-05-12 08:18:00,
2013-05-12 03:19:00,39.6,39.6,29.06,NW,326,0.0,0.0,100,0.00,,---,0.00,VWS V14.00,2013-05-12 08:19:00,
2013-05-12 03:20:00,39.6,39.6,29.06,NW,326,0.0,0.0,100,0.00,,---,0.00,VWS V14.00,2013-05-12 08:20:00,
2013-05-12 03:21:00,39.6,39.6,29.06,NW,326,0.0,0.0,100,0.00,,---,0.00,VWS V14.00,2013-05-12 08:21:00,
2013-05-12 03:22:00,39.6,39.6,29.06,NW,326,0.0,0.0,100,0.00,,---,0.00,VWS V14.00,2013-05-12 08:22:00,
2013-05-12 03:23:00,39.6,39.6,29.06,NW,326,0.0,0.0,100,0.00,,---,0.00,VWS V14.00,2013-05-12 08:23:00,
2013-05-12 03:24:00,39.6,39.6,29.06,NW,326,0.0,0.0,100,0.00,,---,0.00,VWS V14.00,2013-05-12 08:24:00,
2013-05-12 03:25:00,39.6,39.6,29.06,NW,326,0.0,0.0,100,0.00,,---,0.00,VWS V14.00,2013-05-12 08:25:00,
2013-05-12 03:26:00,39.4,39.4,29.06,NW,326,0.0,0.0,100,0.00,,---,0.00,VWS V14.00,2013-05-12 08:26:00,
2013-05-12 03:27:00,39.4,39.4,29.06,NW,326,0.0,0.0,100,0.00,,---,0.00,VWS V14.00,2013-05-12 08:27:00,
2013-05-12 03:28:00,39.4,39.4,29.06,NW,326,0.0,0.0,100,0.00,,---,0.00,VWS V14.00,2013-05-12 08:28:00,
2013-05-12 03:29:00,39.4,39.4,29.06,NW,326,0.0,0.0,100,0.00,,---,0.00,VWS V14.00,2013-05-12 08:29:00,
2013-05-12 03:30:00,39.4,39.4,29.06,NW,326,0.0,0.0,100,0.00,,---,0.00,VWS V14.00,2013-05-12 08:30:00,
2013-05-12 03:31:00,39.4,39.4,29.06,NW,326,0.0,0.0,100,0.00,,---,0.00,VWS V14.00,2013-05-12 08:31:00,
2013-05-12 03:32:00,39.4,39.4,29.06,NW,326,0.0,0.0,100,0.00,,---,0.00,VWS V14.00,2013-05-12 08:32:00,
2013-05-12 03:33:00,39.4,39.4,29.06,NW,326,0.0,0.0,100,0.00,,---,0.00,VWS V14.00,2013-05-12 08:33:00,
2013-05-12 03:34:00,39.4,39.4,29.06,NW,326,0.0,0.0,100,0.00,,---,0.00,VWS V14.00,2013-05-12 08:34:00,
2013-05-12 03:35:00,39.4,39.4,29.06,NW,326,0.0,0.0,100,0.00,,---,0.00,VWS V14.00,2013-05-12 08:35:00,
2013-05-12 03:36:00,39.0,39.0,29.06,NW,326,0.0,0.0,100,0.00,,---,0.00,VWS V14.00,2013-05-12 08:36:00,
2013-05-12 03:37:00,39.0,39.0,29.06,NW,326,0.0,0.0,100,0.00,,---,0.00,VWS V14.00,2013-05-12 08:37:00,
2013-05-12 03:38:00,39.0,39.0,29.06,NW,326,0.0,0.0,100,0.00,,---,0.00,VWS V14.00,2013-05-12 08:38:00,
2013-05-12 03:39:00,39.0,39.0,29.06,NW,326,0.0,0.0,100,0.00,,---,0.00,VWS V14.00,2013-05-12 08:39:00,
2013-05-12 03:40:00,39.0,39.0,29.06,NW,326,0.0,0.0,100,0.00,,---,0.00,VWS V14.00,2013-05-12 08:40:00,
2013-05-12 03:41:00,39.2,39.2,29.06,NW,326,0.0,0.0,100,0.00,,---,0.00,VWS V14.00,2013-05-12 08:41:00,
2013-05-12 03:42:00,39.0,39.0,29.06,NW,326,0.0,0.0,100,0.00,,---,0.00,VWS V14.00,2013-05-12 08:42:00,
2013-05-12 03:43:00,39.0,39.0,29.06,NW,326,0.0,0.0,100,0.00,,---,0.00,VWS V14.00,2013-05-12 08:43:00,
2013-05-12 03:44:00,39.2,39.2,29.06,NW,326,0.0,0.0,100,0.00,,---,0.00,VWS V14.00,2013-05-12 08:44:00,
2013-05-12 03:45:00,39.2,39.2,29.06,NW,326,0.0,0.0,100,0.00,,---,0.00,VWS V14.00,2013-05-12 08:45:00,
2013-05-12 03:46:00,39.2,39.2,29.06,NW,326,0.0,0.0,100,0.00,,---,0.00,VWS V14.00,2013-05-12 08:46:00,
2013-05-12 03:47:00,39.2,39.2,29.06,NW,326,0.0,0.0,100,0.00,,---,0.00,VWS V14.00,2013-05-12 08:47:00,
2013-05-12 03:48:00,39.2,39.2,29.06,NW,326,0.0,0.0,100,0.00,,---,0.00,VWS V14.00,2013-05-12 08:48:00,
2013-05-12 03:49:00,39.2,39.2,29.06,NW,326,0.0,0.0,100,0.00,,---,0.00,VWS V14.00,2013-05-12 08:49:00,
2013-05-12 03:50:00,39.2,39.2,29.06,NW,326,0.0,0.0,100,0.00,,---,0.00,VWS V14.00,2013-05-12 08:50:00,
2013-05-12 03:51:00,39.2,39.2,29.06,NW,326,0.0,0.0,100,0.00,,---,0.00,VWS V14.00,2013-05-12 08:51:00,
2013-05-12 03:52:00,39.2,39.2,29.06,NW,326,0.0,0.0,100,0.00,,---,0.00,VWS V14.00,2013-05-12 08:52:00,
2013-05-12 03:53:00,39.2,39.2,29.06,NW,326,0.0,0.0,100,0.00,,---,0.00,VWS V14.00,2013-05-12 08:53:00,
2013-05-12 03:54:00,39.2,39.2,29.06,NW,326,0.0,0.0,100,0.00,,---,0.00,VWS V14.00,2013-05-12 08:54:00,
2013-05-12 03:55:00,39.2,39.2,29.06,NW,326,0.0,0.0,100,0.00,,---,0.00,VWS V14.00,2013-05-12 08:55:00,
2013-05-12 03:56:00,39.2,39.2,29.06,NW,326,0.0,0.0,100,0.00,,---,0.00,VWS V14.00,2013-05-12 08:56:00,
2013-05-12 03:57:00,39.2,39.2,29.06,NW,326,0.0,0.0,100,0.00,,---,0.00,VWS V14.00,2013-05-12 08:57:00,
2013-05-12 03:58:00,39.2,39.2,29.06,NW,326,0.0,0.0,100,0.00,,---,0.00,VWS V14.00,2013-05-12 08:58:00,
2013-05-12 03:59:00,39.2,39.2,29.06,NW,326,0.0,0.0,100,0.00,,---,0.00,VWS V14.00,2013-05-12 08:59:00,
2013-05-12 04:00:00,39.2,39.2,29.06,NW,326,0.0,0.0,100,0.00,,---,0.00,VWS V14.00,2013-05-12 09:00:00,
2013-05-12 04:01:00,39.0,39.0,29.06,NW,326,0.0,0.0,100,0.00,,---,0.00,VWS V14.00,2013-05-12 09:01:00,
2013-05-12 04:02:00,39.0,39.0,29.06,NW,326,0.0,0.0,100,0.00,,---,0.00,VWS V14.00,2013-05-12 09:02:00,
2013-05-12 04:03:00,39.0,39.0,29.06,NW,326,0.0,0.0,100,0.00,,---,0.00,VWS V14.00,2013-05-12 09:03:00,
2013-05-12 04:04:00,39.0,39.0,29.06,NW,326,0.0,0.0,100,0.00,,---,0.00,VWS V14.00,2013-05-12 09:04:00,
2013-05-12 04:05:00,39.0,39.0,29.06,NW,326,0.0,0.0,100,0.00,,---,0.00,VWS V14.00,2013-05-12 09:05:00,
2013-05-12 04:06:00,39.0,39.0,29.06,NW,326,0.0,0.0,100,0.00,,---,0.00,VWS V14.00,2013-05-12 09:06:00,
2013-05-12 04:07:00,39.0,39.0,29.06,NW,326,0.0,0.0,100,0.00,,---,0.00,VWS V14.00,2013-05-12 09:07:00,
2013-05-12 04:08:00,39.0,39.0,29.06,NW,326,0.0,0.0,100,0.00,,---,0.00,VWS V14.00,2013-05-12 09:08:00,
2013-05-12 04:09:00,39.0,39.0,29.06,NW,326,0.0,0.0,100,0.00,,---,0.00,VWS V14.00,2013-05-12 09:09:00,
2013-05-12 04:10:00,39.0,39.0,29.06,NW,326,0.0,0.0,100,0.00,,---,0.00,VWS V14.00,2013-05-12 09:10:00,
2013-05-12 04:11:00,39.0,39.0,29.06,NW,326,0.0,0.0,100,0.00,,---,0.00,VWS V14.00,2013-05-12 09:11:00,
2013-05-12 04:12:00,39.0,39.0,29.06,NW,326,0.0,0.0,100,0.00,,---,0.00,VWS V14.00,2013-05-12 09:12:00,
2013-05-12 04:13:00,39.0,39.0,29.06,NW,326,0.0,0.0,100,0.00,,---,0.00,VWS V14.00,2013-05-12 09:13:00,
2013-05-12 04:14:00,39.0,39.0,29.06,NW,326,0.0,0.0,100,0.00,,---,0.00,VWS V14.00,2013-05-12 09:14:00,
2013-05-12 04:15:00,39.0,39.0,29.06,NW,326,0.0,0.0,100,0.00,,---,0.00,VWS V14.00,2013-05-12 09:15:00,
2013-05-12 04:16:00,39.2,39.2,29.06,NW,326,0.0,0.0,100,0.00,,---,0.00,VWS V14.00,2013-05-12 09:16:00,
2013-05-12 04:17:00,39.0,39.0,29.06,NW,326,0.0,0.0,100,0.00,,---,0.00,VWS V14.00,2013-05-12 09:17:00,
2013-05-12 04:18:00,39.0,39.0,29.06,NW,326,0.0,0.0,100,0.00,,---,0.00,VWS V14.00,2013-05-12 09:18:00,
2013-05-12 04:19:00,39.2,39.2,29.06,NW,326,0.0,0.0,100,0.00,,---,0.00,VWS V14.00,2013-05-12 09:19:00,
2013-05-12 04:20:00,39.2,39.2,29.06,NW,326,0.0,0.0,100,0.00,,---,0.00,VWS V14.00,2013-05-12 09:20:00,
2013-05-12 04:21:00,39.2,39.2,29.06,NW,326,0.0,0.0,100,0.00,,---,0.00,VWS V14.00,2013-05-12 09:21:00,
2013-05-12 04:22:00,39.2,39.2,29.06,NW,326,0.0,0.0,100,0.00,,---,0.00,VWS V14.00,2013-05-12 09:22:00,
2013-05-12 04:23:00,39.2,39.2,29.06,NW,326,0.0,0.0,100,0.00,,---,0.00,VWS V14.00,2013-05-12 09:23:00,
2013-05-12 04:24:00,39.2,39.2,29.06,NW,326,0.0,0.0,100,0.00,,---,0.00,VWS V14.00,2013-05-12 09:24:00,
2013-05-12 04:25:00,39.2,39.2,29.06,NW,326,0.0,0.0,100,0.00,,---,0.00,VWS V14.00,2013-05-12 09:25:00,
2013-05-12 04:26:00,39.0,39.0,29.06,NW,326,0.0,0.0,100,0.00,,---,0.00,VWS V14.00,2013-05-12 09:26:00,
2013-05-12 04:27:00,39.2,39.2,29.06,NW,326,0.0,0.0,100,0.00,,---,0.00,VWS V14.00,2013-05-12 09:27:00,
2013-05-12 04:28:00,39.0,39.0,29.06,NW,326,0.0,0.0,100,0.00,,---,0.00,VWS V14.00,2013-05-12 09:28:00,
2013-05-12 04:29:00,39.0,39.0,29.06,NW,326,0.0,0.0,100,0.00,,---,0.00,VWS V14.00,2013-05-12 09:29:00,
2013-05-12 04:30:00,39.0,39.0,29.06,NW,326,0.0,0.0,100,0.00,,---,0.00,VWS V14.00,2013-05-12 09:30:00,
2013-05-12 04:31:00,39.0,39.0,29.06,NW,326,0.0,0.0,100,0.00,,---,0.00,VWS V14.00,2013-05-12 09:31:00,
2013-05-12 04:32:00,39.0,39.0,29.06,NW,326,0.0,0.0,100,0.00,,---,0.00,VWS V14.00,2013-05-12 09:32:00,
2013-05-12 04:33:00,39.0,39.0,29.06,NW,326,0.0,0.0,100,0.00,,---,0.00,VWS V14.00,2013-05-12 09:33:00,
2013-05-12 04:34:00,39.0,39.0,29.06,NW,326,0.0,0.0,100,0.00,,---,0.00,VWS V14.00,2013-05-12 09:34:00,
2013-05-12 04:35:00,39.0,39.0,29.06,NW,326,0.0,0.0,100,0.00,,---,0.00,VWS V14.00,2013-05-12 09:35:00,
2013-05-12 04:36:00,38.8,38.8,29.06,NW,326,0.0,0.0,100,0.00,,---,0.00,VWS V14.00,2013-05-12 09:36:00,
2013-05-12 04:37:00,38.8,38.8,29.06,NW,326,0.0,0.0,100,0.00,,---,0.00,VWS V14.00,2013-05-12 09:37:00,
2013-05-12 04:38:00,38.8,38.8,29.06,NW,326,0.0,0.0,100,0.00,,---,0.00,VWS V14.00,2013-05-12 09:38:00,
2013-05-12 04:39:00,38.8,38.8,29.06,NW,326,0.0,0.0,100,0.00,,---,0.00,VWS V14.00,2013-05-12 09:39:00,
2013-05-12 04:40:00,38.8,38.8,29.06,NW,326,0.0,0.0,100,0.00,,---,0.00,VWS V14.00,2013-05-12 09:40:00,
2013-05-12 04:41:00,38.8,38.8,29.06,NW,326,0.0,0.0,100,0.00,,---,0.00,VWS V14.00,2013-05-12 09:41:00,
2013-05-12 04:42:00,38.8,38.8,29.06,NW,326,0.0,0.0,100,0.00,,---,0.00,VWS V14.00,2013-05-12 09:42:00,
2013-05-12 04:43:00,38.8,38.8,29.06,NW,326,0.0,0.0,100,0.00,,---,0.00,VWS V14.00,2013-05-12 09:43:00,
2013-05-12 04:44:00,38.8,38.8,29.06,NW,326,0.0,0.0,100,0.00,,---,0.00,VWS V14.00,2013-05-12 09:44:00,
2013-05-12 04:45:00,38.7,38.7,29.06,NW,326,0.0,0.0,100,0.00,,---,0.00,VWS V14.00,2013-05-12 09:45:00,
2013-05-12 04:46:00,38.7,38.7,29.06,NW,326,0.0,0.0,100,0.00,,---,0.00,VWS V14.00,2013-05-12 09:46:00,
2013-05-12 04:47:00,38.7,38.7,29.06,NW,326,0.0,0.0,100,0.00,,---,0.00,VWS V14.00,2013-05-12 09:47:00,
2013-05-12 04:48:00,38.7,38.7,29.06,NW,326,0.0,0.0,100,0.00,,---,0.00,VWS V14.00,2013-05-12 09:48:00,
2013-05-12 04:49:00,38.7,38.7,29.06,NW,326,0.0,0.0,100,0.00,,---,0.00,VWS V14.00,2013-05-12 09:49:00,
2013-05-12 04:50:00,38.7,38.7,29.06,NW,326,0.0,0.0,100,0.00,,---,0.00,VWS V14.00,2013-05-12 09:50:00,
2013-05-12 04:51:00,38.7,38.7,29.06,NW,326,0.0,0.0,100,0.00,,---,0.00,VWS V14.00,2013-05-12 09:51:00,
2013-05-12 04:52:00,38.7,38.7,29.06,NW,326,0.0,0.0,100,0.00,,---,0.00,VWS V14.00,2013-05-12 09:52:00,
2013-05-12 04:53:00,38.7,38.7,29.06,NW,326,0.0,0.0,100,0.00,,---,0.00,VWS V14.00,2013-05-12 09:53:00,
2013-05-12 04:54:00,38.7,38.7,29.06,NW,326,0.0,0.0,100,0.00,,---,0.00,VWS V14.00,2013-05-12 09:54:00,
2013-05-12 04:55:00,38.7,38.7,29.06,NW,326,0.0,0.0,100,0.00,,---,0.00,VWS V14.00,2013-05-12 09:55:00,
2013-05-12 04:56:00,38.7,38.7,29.06,NW,326,0.0,0.0,100,0.00,,---,0.00,VWS V14.00,2013-05-12 09:56:00,
2013-05-12 04:57:00,38.7,38.7,29.06,NW,326,0.0,0.0,100,0.00,,---,0.00,VWS V14.00,2013-05-12 09:57:00,
2013-05-12 04:58:00,38.7,38.7,29.06,NW,326,0.0,0.0,100,0.00,,---,0.00,VWS V14.00,2013-05-12 09:58:00,
2013-05-12 04:59:00,38.7,38.7,29.06,NW,326,0.0,0.0,100,0.00,,---,0.00,VWS V14.00,2013-05-12 09:59:00,
2013-05-12 05:00:00,38.7,38.7,29.06,NW,326,0.0,0.0,100,0.00,,---,0.00,VWS V14.00,2013-05-12 10:00:00,
2013-05-12 05:01:00,38.5,38.5,29.06,NW,326,0.0,0.0,100,0.00,,---,0.00,VWS V14.00,2013-05-12 10:01:00,
2013-05-12 05:02:00,38.5,38.5,29.06,NW,326,0.0,0.0,100,0.00,,---,0.00,VWS V14.00,2013-05-12 10:02:00,
2013-05-12 05:03:00,38.5,38.5,29.06,NW,326,0.0,0.0,100,0.00,,---,0.00,VWS V14.00,2013-05-12 10:03:00,
2013-05-12 05:04:00,38.5,38.5,29.06,NW,326,0.0,0.0,100,0.00,,---,0.00,VWS V14.00,2013-05-12 10:04:00,
2013-05-12 05:05:00,38.5,38.5,29.06,NW,326,0.0,0.0,100,0.00,,---,0.00,VWS V14.00,2013-05-12 10:05:00,
2013-05-12 05:06:00,38.1,38.1,29.06,NW,326,0.0,0.0,100,0.00,,---,0.00,VWS V14.00,2013-05-12 10:06:00,
2013-05-12 05:07:00,38.1,38.1,29.06,NW,326,0.0,0.0,100,0.00,,---,0.00,VWS V14.00,2013-05-12 10:07:00,
2013-05-12 05:08:00,38.1,38.1,29.06,NW,326,0.0,0.0,100,0.00,,---,0.00,VWS V14.00,2013-05-12 10:08:00,
2013-05-12 05:09:00,38.1,38.1,29.06,NW,326,0.0,0.0,100,0.00,,---,0.00,VWS V14.00,2013-05-12 10:09:00,
2013-05-12 05:10:00,37.8,37.8,29.06,NW,326,0.0,0.0,100,0.00,,---,0.00,VWS V14.00,2013-05-12 10:10:00,
2013-05-12 05:11:00,37.8,37.8,29.06,NW,326,0.0,0.0,100,0.00,,---,0.00,VWS V14.00,2013-05-12 10:11:00,
2013-05-12 05:12:00,37.8,37.8,29.06,NW,326,0.0,0.0,100,0.00,,---,0.00,VWS V14.00,2013-05-12 10:12:00,
2013-05-12 05:13:00,37.8,37.8,29.06,NW,326,0.0,0.0,100,0.00,,---,0.00,VWS V14.00,2013-05-12 10:13:00,
2013-05-12 05:14:00,37.8,37.8,29.06,NW,326,0.0,0.0,100,0.00,,---,0.00,VWS V14.00,2013-05-12 10:14:00,
2013-05-12 05:15:00,37.8,37.8,29.06,NW,326,0.0,0.0,100,0.00,,---,0.00,VWS V14.00,2013-05-12 10:15:00,
2013-05-12 05:16:00,37.9,37.9,29.06,NW,326,0.0,0.0,100,0.00,,---,0.00,VWS V14.00,2013-05-12 10:16:00,
2013-05-12 05:17:00,37.8,37.8,29.06,NW,326,0.0,0.0,100,0.00,,---,0.00,VWS V14.00,2013-05-12 10:17:00,
2013-05-12 05:18:00,37.9,37.9,29.06,NW,326,0.0,0.0,100,0.00,,---,0.00,VWS V14.00,2013-05-12 10:18:00,
2013-05-12 05:19:00,37.9,37.9,29.06,NW,326,0.0,0.0,100,0.00,,---,0.00,VWS V14.00,2013-05-12 10:19:00,
2013-05-12 05:20:00,37.9,37.9,29.06,NW,326,0.0,0.0,100,0.00,,---,0.00,VWS V14.00,2013-05-12 10:20:00,
2013-05-12 05:21:00,37.9,37.9,29.06,NW,326,0.0,0.0,100,0.00,,---,0.00,VWS V14.00,2013-05-12 10:21:00,
2013-05-12 05:22:00,37.9,37.9,29.06,NW,326,0.0,0.0,100,0.00,,---,0.00,VWS V14.00,2013-05-12 10:22:00,
2013-05-12 05:23:00,37.9,37.9,29.06,NW,326,0.0,0.0,100,0.00,,---,0.00,VWS V14.00,2013-05-12 10:23:00,
2013-05-12 05:24:00,38.1,38.1,29.06,NW,326,0.0,0.0,100,0.00,,---,0.00,VWS V14.00,2013-05-12 10:24:00,
2013-05-12 05:25:00,38.1,38.1,29.06,NW,326,0.0,0.0,100,0.00,,---,0.00,VWS V14.00,2013-05-12 10:25:00,
2013-05-12 05:26:00,38.1,38.1,29.06,NW,326,0.0,0.0,100,0.00,,---,0.00,VWS V14.00,2013-05-12 10:26:00,
2013-05-12 05:27:00,38.1,38.1,29.06,NW,326,0.0,0.0,100,0.00,,---,0.00,VWS V14.00,2013-05-12 10:27:00,
2013-05-12 05:28:00,38.1,38.1,29.06,NW,326,0.0,0.0,100,0.00,,---,0.00,VWS V14.00,2013-05-12 10:28:00,
2013-05-12 05:29:00,38.1,38.1,29.06,NW,326,0.0,0.0,100,0.00,,---,0.00,VWS V14.00,2013-05-12 10:29:00,
2013-05-12 05:30:00,38.1,38.1,29.06,NW,326,0.0,0.0,100,0.00,,---,0.00,VWS V14.00,2013-05-12 10:30:00,
2013-05-12 05:31:00,38.1,38.1,29.06,NW,326,0.0,0.0,100,0.00,,---,0.00,VWS V14.00,2013-05-12 10:31:00,
2013-05-12 05:32:00,38.1,38.1,29.06,NW,326,0.0,0.0,100,0.00,,---,0.00,VWS V14.00,2013-05-12 10:32:00,
2013-05-12 05:33:00,38.1,38.1,29.06,NW,326,0.0,0.0,100,0.00,,---,0.00,VWS V14.00,2013-05-12 10:33:00,
2013-05-12 05:34:00,38.1,38.1,29.06,NW,326,0.0,0.0,100,0.00,,---,0.00,VWS V14.00,2013-05-12 10:34:00,
2013-05-12 05:35:00,38.1,38.1,29.06,NW,326,0.0,0.0,100,0.00,,---,0.00,VWS V14.00,2013-05-12 10:35:00,
2013-05-12 05:36:00,38.1,38.1,29.06,NW,326,0.0,0.0,100,0.00,,---,0.00,VWS V14.00,2013-05-12 10:36:00,
2013-05-12 05:37:00,38.1,38.1,29.06,NW,326,0.0,0.0,100,0.00,,---,0.00,VWS V14.00,2013-05-12 10:37:00,
2013-05-12 05:38:00,38.1,38.1,29.06,NW,326,0.0,0.0,100,0.00,,---,0.00,VWS V14.00,2013-05-12 10:38:00,
2013-05-12 05:39:00,38.1,38.1,29.06,NW,326,0.0,0.0,100,0.00,,---,0.00,VWS V14.00,2013-05-12 10:39:00,
2013-05-12 05:40:00,38.1,38.1,29.06,NW,326,0.0,0.0,100,0.00,,---,0.00,VWS V14.00,2013-05-12 10:40:00,
2013-05-12 05:41:00,38.1,38.1,29.06,NW,326,0.0,0.0,100,0.00,,---,0.00,VWS V14.00,2013-05-12 10:41:00,
2013-05-12 05:42:00,38.1,38.1,29.06,NW,326,0.0,0.0,100,0.00,,---,0.00,VWS V14.00,2013-05-12 10:42:00,
2013-05-12 05:43:00,38.1,38.1,29.06,NW,326,0.0,0.0,100,0.00,,---,0.00,VWS V14.00,2013-05-12 10:43:00,
2013-05-12 05:44:00,38.3,38.3,29.06,NW,326,0.0,0.0,100,0.00,,---,0.00,VWS V14.00,2013-05-12 10:44:00,
2013-05-12 05:45:00,38.3,38.3,29.06,NW,326,0.0,0.0,100,0.00,,---,0.00,VWS V14.00,2013-05-12 10:45:00,
2013-05-12 05:46:00,38.3,38.3,29.06,NW,326,0.0,0.0,100,0.00,,---,0.00,VWS V14.00,2013-05-12 10:46:00,
2013-05-12 05:47:00,38.3,38.3,29.06,NW,326,0.0,0.0,100,0.00,,---,0.00,VWS V14.00,2013-05-12 10:47:00,
2013-05-12 05:48:00,38.3,38.3,29.06,NW,326,0.0,0.0,100,0.00,,---,0.00,VWS V14.00,2013-05-12 10:48:00,
2013-05-12 05:49:00,38.3,38.3,29.06,NW,326,0.0,0.0,100,0.00,,---,0.00,VWS V14.00,2013-05-12 10:49:00,
2013-05-12 05:50:00,38.3,38.3,29.06,NW,326,0.0,0.0,100,0.00,,---,0.00,VWS V14.00,2013-05-12 10:50:00,
2013-05-12 05:51:00,38.3,38.3,29.06,NW,326,0.0,0.0,100,0.00,,---,0.00,VWS V14.00,2013-05-12 10:51:00,
2013-05-12 05:52:00,38.3,38.3,29.06,NW,326,0.0,0.0,100,0.00,,---,0.00,VWS V14.00,2013-05-12 10:52:00,
2013-05-12 05:53:00,38.3,38.3,29.06,NW,326,0.0,0.0,100,0.00,,---,0.00,VWS V14.00,2013-05-12 10:53:00,
2013-05-12 05:54:00,38.3,38.3,29.06,NW,326,0.0,0.0,100,0.00,,---,0.00,VWS V14.00,2013-05-12 10:54:00,
2013-05-12 05:55:00,38.3,38.3,29.06,NW,326,0.0,0.0,100,0.00,,---,0.00,VWS V14.00,2013-05-12 10:55:00,
2013-05-12 05:56:00,38.3,38.3,29.06,NW,326,0.0,0.0,100,0.00,,---,0.00,VWS V14.00,2013-05-12 10:56:00,
2013-05-12 05:57:00,38.3,38.3,29.06,NW,326,0.0,0.0,100,0.00,,---,0.00,VWS V14.00,2013-05-12 10:57:00,
2013-05-12 05:58:00,38.3,38.3,29.06,NW,326,0.0,0.0,100,0.00,,---,0.00,VWS V14.00,2013-05-12 10:58:00,
2013-05-12 05:59:00,38.3,38.3,29.06,NW,326,0.0,0.0,100,0.00,,---,0.00,VWS V14.00,2013-05-12 10:59:00,
2013-05-12 06:00:00,38.3,38.3,29.06,NW,326,0.0,0.0,100,0.00,,---,0.00,VWS V14.00,2013-05-12 11:00:00,
2013-05-12 06:01:00,38.7,38.7,29.06,NW,326,0.0,0.0,100,0.00,,---,0.00,VWS V14.00,2013-05-12 11:01:00,
2013-05-12 06:02:00,38.7,38.7,29.06,NW,326,0.0,0.0,100,0.00,,---,0.00,VWS V14.00,2013-05-12 11:02:00,
2013-05-12 06:03:00,38.7,38.7,29.06,NW,326,0.0,0.0,100,0.00,,---,0.00,VWS V14.00,2013-05-12 11:03:00,
2013-05-12 06:04:00,38.7,38.7,29.06,NW,326,0.0,0.0,100,0.00,,---,0.00,VWS V14.00,2013-05-12 11:04:00,
2013-05-12 06:05:00,38.7,38.7,29.06,NW,326,0.0,0.0,100,0.00,,---,0.00,VWS V14.00,2013-05-12 11:05:00,
2013-05-12 06:06:00,38.7,38.7,29.06,NW,326,0.0,0.0,100,0.00,,---,0.00,VWS V14.00,2013-05-12 11:06:00,
2013-05-12 06:07:00,38.7,38.7,29.06,NW,326,0.0,0.0,100,0.00,,---,0.00,VWS V14.00,2013-05-12 11:07:00,
2013-05-12 06:08:00,38.7,38.7,29.06,NW,326,0.0,0.0,100,0.00,,---,0.00,VWS V14.00,2013-05-12 11:08:00,
2013-05-12 06:09:00,38.7,38.7,29.06,NW,326,0.0,0.0,100,0.00,,---,0.00,VWS V14.00,2013-05-12 11:09:00,
2013-05-12 06:10:00,39.2,39.2,29.06,NW,326,0.0,0.0,100,0.00,,---,0.00,VWS V14.00,2013-05-12 11:10:00,
2013-05-12 06:11:00,39.2,39.2,29.06,NW,326,0.0,0.0,100,0.00,,---,0.00,VWS V14.00,2013-05-12 11:11:00,
2013-05-12 06:12:00,39.2,39.2,29.06,NW,326,0.0,0.0,100,0.00,,---,0.00,VWS V14.00,2013-05-12 11:12:00,
2013-05-12 06:13:00,39.2,39.2,29.06,NW,326,0.0,0.0,100,0.00,,---,0.00,VWS V14.00,2013-05-12 11:13:00,
2013-05-12 06:14:00,39.2,39.2,29.06,NW,326,0.0,0.0,100,0.00,,---,0.00,VWS V14.00,2013-05-12 11:14:00,
2013-05-12 06:15:00,39.2,39.2,29.06,NW,326,0.0,0.0,100,0.00,,---,0.00,VWS V14.00,2013-05-12 11:15:00,
2013-05-12 06:16:00,39.2,39.2,29.06,NW,326,0.0,0.0,100,0.00,,---,0.00,VWS V14.00,2013-05-12 11:16:00,
2013-05-12 06:17:00,39.2,39.2,29.06,NW,326,0.0,0.0,100,0.00,,---,0.00,VWS V14.00,2013-05-12 11:17:00,
2013-05-12 06:18:00,39.2,39.2,29.06,NW,326,0.0,0.0,100,0.00,,---,0.00,VWS V14.00,2013-05-12 11:18:00,
2013-05-12 06:19:00,39.4,39.4,29.06,NW,326,0.0,0.0,100,0.00,,---,0.00,VWS V14.00,2013-05-12 11:19:00,
2013-05-12 06:20:00,39.4,39.4,29.06,NW,326,0.0,0.0,100,0.00,,---,0.00,VWS V14.00,2013-05-12 11:20:00,
2013-05-12 06:21:00,39.4,39.4,29.06,NW,326,0.0,0.0,100,0.00,,---,0.00,VWS V14.00,2013-05-12 11:21:00,
2013-05-12 06:22:00,39.4,39.4,29.06,NW,326,0.0,0.0,100,0.00,,---,0.00,VWS V14.00,2013-05-12 11:22:00,
2013-05-12 06:23:00,39.4,39.4,29.06,NW,326,0.0,0.0,100,0.00,,---,0.00,VWS V14.00,2013-05-12 11:23:00,
2013-05-12 06:24:00,39.4,39.4,29.06,NW,326,0.0,0.0,100,0.00,,---,0.00,VWS V14.00,2013-05-12 11:24:00,
2013-05-12 06:25:00,39.4,39.4,29.06,NW,326,0.0,0.0,100,0.00,,---,0.00,VWS V14.00,2013-05-12 11:25:00,
2013-05-12 06:26:00,39.9,39.9,29.06,West,270,0.0,0.0,100,0.00,,---,0.00,VWS V14.00,2013-05-12 11:26:00,
2013-05-12 06:27:00,39.4,39.4,29.06,West,270,0.0,0.0,100,0.00,,---,0.00,VWS V14.00,2013-05-12 11:27:00,
2013-05-12 06:28:00,39.9,39.9,29.06,West,270,0.0,0.0,100,0.00,,---,0.00,VWS V14.00,2013-05-12 11:28:00,
2013-05-12 06:29:00,39.9,39.9,29.06,West,270,0.0,0.0,100,0.00,,---,0.00,VWS V14.00,2013-05-12 11:29:00,
2013-05-12 06:30:00,39.9,39.9,29.06,West,270,0.0,0.0,100,0.00,,---,0.00,VWS V14.00,2013-05-12 11:30:00,
2013-05-12 06:31:00,39.9,39.9,29.06,West,270,0.0,0.0,100,0.00,,---,0.00,VWS V14.00,2013-05-12 11:31:00,
2013-05-12 06:32:00,39.9,39.9,29.06,West,270,0.0,0.0,100,0.00,,---,0.00,VWS V14.00,2013-05-12 11:32:00,
2013-05-12 06:33:00,39.9,39.9,29.06,West,270,0.0,0.0,100,0.00,,---,0.00,VWS V14.00,2013-05-12 11:33:00,
2013-05-12 06:34:00,40.3,40.3,29.06,West,270,0.0,0.0,100,0.00,,---,0.00,VWS V14.00,2013-05-12 11:34:00,
2013-05-12 06:35:00,40.3,40.3,29.06,West,270,0.0,0.0,100,0.00,,---,0.00,VWS V14.00,2013-05-12 11:35:00,
2013-05-12 06:36:00,40.3,40.3,29.06,West,270,0.0,0.0,100,0.00,,---,0.00,VWS V14.00,2013-05-12 11:36:00,
2013-05-12 06:37:00,40.3,40.3,29.06,West,270,0.0,0.0,100,0.00,,---,0.00,VWS V14.00,2013-05-12 11:37:00,
2013-05-12 06:38:00,40.3,40.3,29.06,West,270,0.0,0.0,100,0.00,,---,0.00,VWS V14.00,2013-05-12 11:38:00,
2013-05-12 06:39:00,40.3,40.3,29.06,West,270,0.0,0.0,100,0.00,,---,0.00,VWS V14.00,2013-05-12 11:39:00,
2013-05-12 06:40:00,40.3,40.3,29.06,West,270,0.0,0.0,100,0.00,,---,0.00,VWS V14.00,2013-05-12 11:40:00,
2013-05-12 06:41:00,40.3,40.3,29.06,West,270,0.0,0.0,100,0.00,,---,0.00,VWS V14.00,2013-05-12 11:41:00,
2013-05-12 06:42:00,40.3,40.3,29.06,West,270,0.0,0.0,100,0.00,,---,0.00,VWS V14.00,2013-05-12 11:42:00,
2013-05-12 06:43:00,40.3,40.3,29.06,West,270,0.0,0.0,100,0.00,,---,0.00,VWS V14.00,2013-05-12 11:43:00,
2013-05-12 06:44:00,40.3,40.3,29.06,West,270,0.0,0.0,100,0.00,,---,0.00,VWS V14.00,2013-05-12 11:44:00,
2013-05-12 06:45:00,40.6,40.6,29.06,West,270,0.0,0.0,100,0.00,,---,0.00,VWS V14.00,2013-05-12 11:45:00,
2013-05-12 06:46:00,40.6,40.6,29.06,West,270,0.0,0.0,100,0.00,,---,0.00,VWS V14.00,2013-05-12 11:46:00,
2013-05-12 06:47:00,40.6,40.6,29.06,West,270,0.0,0.0,100,0.00,,---,0.00,VWS V14.00,2013-05-12 11:47:00,
2013-05-12 06:48:00,40.6,40.6,29.06,West,270,0.0,0.0,100,0.00,,---,0.00,VWS V14.00,2013-05-12 11:48:00,
2013-05-12 06:49:00,40.6,40.6,29.06,West,270,0.0,0.0,100,0.00,,---,0.00,VWS V14.00,2013-05-12 11:49:00,
2013-05-12 06:50:00,41.2,41.2,29.06,West,270,0.0,0.0,100,0.00,,---,0.00,VWS V14.00,2013-05-12 11:50:00,
2013-05-12 06:51:00,40.6,40.6,29.06,West,270,0.0,0.0,100,0.00,,---,0.00,VWS V14.00,2013-05-12 11:51:00,
2013-05-12 06:52:00,40.6,40.6,29.06,West,270,0.0,0.0,100,0.00,,---,0.00,VWS V14.00,2013-05-12 11:52:00,
2013-05-12 06:53:00,40.6,40.6,29.06,West,270,0.0,0.0,100,0.00,,---,0.00,VWS V14.00,2013-05-12 11:53:00,
2013-05-12 06:54:00,41.2,41.2,29.06,West,270,0.0,0.0,100,0.00,,---,0.00,VWS V14.00,2013-05-12 11:54:00,
2013-05-12 06:55:00,41.4,41.4,29.06,West,270,0.0,0.0,100,0.00,,---,0.00,VWS V14.00,2013-05-12 11:55:00,
2013-05-12 06:56:00,41.2,41.2,29.06,West,270,0.0,0.0,100,0.00,,---,0.00,VWS V14.00,2013-05-12 11:56:00,
2013-05-12 06:57:00,41.2,41.2,29.06,West,270,0.0,0.0,100,0.00,,---,0.00,VWS V14.00,2013-05-12 11:57:00,
2013-05-12 06:58:00,41.4,41.4,29.06,West,270,0.0,0.0,100,0.00,,---,0.00,VWS V14.00,2013-05-12 11:58:00,
2013-05-12 06:59:00,41.4,41.4,29.06,West,270,0.0,0.0,100,0.00,,---,0.00,VWS V14.00,2013-05-12 11:59:00,
2013-05-12 07:00:00,41.5,41.5,29.06,West,270,0.0,0.0,100,0.00,,---,0.00,VWS V14.00,2013-05-12 12:00:00,
2013-05-12 07:01:00,41.4,41.4,29.06,West,270,0.0,0.0,100,0.00,,---,0.00,VWS V14.00,2013-05-12 12:01:00,
2013-05-12 07:02:00,41.5,41.5,29.06,West,270,0.0,0.0,100,0.00,,---,0.00,VWS V14.00,2013-05-12 12:02:00,
2013-05-12 07:03:00,41.5,41.5,29.06,West,270,0.0,0.0,100,0.00,,---,0.00,VWS V14.00,2013-05-12 12:03:00,
2013-05-12 07:04:00,41.5,41.5,29.06,West,270,0.0,0.0,100,0.00,,---,0.00,VWS V14.00,2013-05-12 12:04:00,
2013-05-12 07:05:00,41.5,41.5,29.06,West,270,0.0,0.0,100,0.00,,---,0.00,VWS V14.00,2013-05-12 12:05:00,
2013-05-12 07:06:00,41.5,41.5,29.06,West,270,0.0,0.0,100,0.00,,---,0.00,VWS V14.00,2013-05-12 12:06:00,
2013-05-12 07:07:00,41.5,41.5,29.06,West,270,0.0,0.0,100,0.00,,---,0.00,VWS V14.00,2013-05-12 12:07:00,
2013-05-12 07:08:00,41.5,41.5,29.06,West,270,0.0,0.0,100,0.00,,---,0.00,VWS V14.00,2013-05-12 12:08:00,
2013-05-12 07:09:00,41.5,41.5,29.06,West,270,0.0,0.0,100,0.00,,---,0.00,VWS V14.00,2013-05-12 12:09:00,
2013-05-12 07:10:00,42.1,42.1,29.06,West,270,0.0,0.0,100,0.00,,---,0.00,VWS V14.00,2013-05-12 12:10:00,
2013-05-12 07:11:00,42.1,42.1,29.06,West,270,0.0,0.0,100,0.00,,---,0.00,VWS V14.00,2013-05-12 12:11:00,
2013-05-12 07:12:00,42.1,42.1,29.06,West,270,0.0,0.0,100,0.00,,---,0.00,VWS V14.00,2013-05-12 12:12:00,
2013-05-12 07:13:00,42.1,42.1,29.06,West,270,0.0,0.0,100,0.00,,---,0.00,VWS V14.00,2013-05-12 12:13:00,
2013-05-12 07:14:00,42.1,42.1,29.06,West,270,0.0,0.0,100,0.00,,---,0.00,VWS V14.00,2013-05-12 12:14:00,
2013-05-12 07:15:00,42.1,42.1,29.06,West,270,0.0,0.0,100,0.00,,---,0.00,VWS V14.00,2013-05-12 12:15:00,
2013-05-12 07:16:00,42.1,42.1,29.06,West,270,0.0,0.0,100,0.00,,---,0.00,VWS V14.00,2013-05-12 12:16:00,
2013-05-12 07:17:00,42.1,42.1,29.06,West,270,0.0,0.0,100,0.00,,---,0.00,VWS V14.00,2013-05-12 12:17:00,
2013-05-12 07:18:00,42.1,42.1,29.06,West,270,0.0,0.0,100,0.00,,---,0.00,VWS V14.00,2013-05-12 12:18:00,
2013-05-12 07:19:00,42.1,42.1,29.06,West,270,0.0,0.0,100,0.00,,---,0.00,VWS V14.00,2013-05-12 12:19:00,
2013-05-12 07:20:00,43.0,43.0,29.06,West,270,0.0,0.0,100,0.00,,---,0.00,VWS V14.00,2013-05-12 12:20:00,
2013-05-12 07:21:00,43.0,43.0,29.06,West,270,0.0,0.0,100,0.00,,---,0.00,VWS V14.00,2013-05-12 12:21:00,
2013-05-12 07:22:00,43.0,43.0,29.06,West,270,0.0,0.0,100,0.00,,---,0.00,VWS V14.00,2013-05-12 12:22:00,
2013-05-12 07:23:00,43.0,43.0,29.06,West,270,0.0,0.0,100,0.00,,---,0.00,VWS V14.00,2013-05-12 12:23:00,
2013-05-12 07:24:00,43.0,43.0,29.06,West,270,0.0,0.0,100,0.00,,---,0.00,VWS V14.00,2013-05-12 12:24:00,
2013-05-12 07:25:00,43.7,42.1,29.06,West,270,0.0,0.0,94,0.00,,---,0.00,VWS V14.00,2013-05-12 12:25:00,
2013-05-12 07:26:00,43.0,43.0,29.06,West,270,0.0,0.0,100,0.00,,---,0.00,VWS V14.00,2013-05-12 12:26:00,
2013-05-12 07:27:00,43.0,43.0,29.06,West,270,0.0,0.0,100,0.00,,---,0.00,VWS V14.00,2013-05-12 12:27:00,
2013-05-12 07:28:00,43.7,42.1,29.06,West,270,0.0,0.0,94,0.00,,---,0.00,VWS V14.00,2013-05-12 12:28:00,
2013-05-12 07:29:00,43.7,42.1,29.06,West,270,0.0,0.0,94,0.00,,---,0.00,VWS V14.00,2013-05-12 12:29:00,
2013-05-12 07:30:00,44.6,40.7,29.06,West,270,0.0,0.0,86,0.00,,---,0.00,VWS V14.00,2013-05-12 12:30:00,
2013-05-12 07:31:00,43.7,42.1,29.06,West,270,0.0,0.0,94,0.00,,---,0.00,VWS V14.00,2013-05-12 12:31:00,
2013-05-12 07:32:00,44.6,40.7,29.06,West,270,0.0,0.0,86,0.00,,---,0.00,VWS V14.00,2013-05-12 12:32:00,
2013-05-12 07:33:00,44.6,40.7,29.06,West,270,0.0,0.0,86,0.00,,---,0.00,VWS V14.00,2013-05-12 12:33:00,
2013-05-12 07:34:00,44.6,40.7,29.06,West,270,0.0,0.0,86,0.00,,---,0.00,VWS V14.00,2013-05-12 12:34:00,
2013-05-12 07:35:00,45.3,41.4,29.06,West,270,0.0,0.0,86,0.00,,---,0.00,VWS V14.00,2013-05-12 12:35:00,
2013-05-12 07:36:00,44.6,40.7,29.06,West,270,0.0,0.0,86,0.00,,---,0.00,VWS V14.00,2013-05-12 12:36:00,
2013-05-12 07:37:00,45.3,41.4,29.06,West,270,0.0,0.0,86,0.00,,---,0.00,VWS V14.00,2013-05-12 12:37:00,
2013-05-12 07:38:00,45.3,41.4,29.06,West,270,0.0,0.0,86,0.00,,---,0.00,VWS V14.00,2013-05-12 12:38:00,
2013-05-12 07:39:00,45.3,41.4,29.06,West,270,0.0,0.0,86,0.00,,---,0.00,VWS V14.00,2013-05-12 12:39:00,
2013-05-12 07:40:00,45.3,41.4,29.06,West,270,0.0,0.0,86,0.00,,---,0.00,VWS V14.00,2013-05-12 12:40:00,
2013-05-12 07:41:00,45.3,41.4,29.06,West,270,0.0,0.0,86,0.00,,---,0.00,VWS V14.00,2013-05-12 12:41:00,
2013-05-12 07:42:00,45.3,41.4,29.06,West,270,0.0,0.0,86,0.00,,---,0.00,VWS V14.00,2013-05-12 12:42:00,
2013-05-12 07:43:00,45.3,41.4,29.06,West,270,0.0,0.0,86,0.00,,---,0.00,VWS V14.00,2013-05-12 12:43:00,
2013-05-12 07:44:00,45.3,41.4,29.06,West,270,0.0,0.0,86,0.00,,---,0.00,VWS V14.00,2013-05-12 12:44:00,
2013-05-12 07:45:00,46.4,39.9,29.06,West,270,0.0,0.0,78,0.00,,---,0.00,VWS V14.00,2013-05-12 12:45:00,
2013-05-12 07:46:00,46.4,39.9,29.06,West,270,0.0,0.0,78,0.00,,---,0.00,VWS V14.00,2013-05-12 12:46:00,
2013-05-12 07:47:00,46.4,39.9,29.06,West,270,0.0,0.0,78,0.00,,---,0.00,VWS V14.00,2013-05-12 12:47:00,
2013-05-12 07:48:00,46.4,39.9,29.06,West,270,0.0,0.0,78,0.00,,---,0.00,VWS V14.00,2013-05-12 12:48:00,
2013-05-12 07:49:00,46.4,39.9,29.06,West,270,0.0,0.0,78,0.00,,---,0.00,VWS V14.00,2013-05-12 12:49:00,
2013-05-12 07:50:00,46.4,39.9,29.06,West,270,0.0,0.0,78,0.00,,---,0.00,VWS V14.00,2013-05-12 12:50:00,
2013-05-12 07:51:00,46.4,39.9,29.06,West,270,0.0,0.0,78,0.00,,---,0.00,VWS V14.00,2013-05-12 12:51:00,
2013-05-12 07:52:00,46.4,39.9,29.06,West,270,0.0,0.0,78,0.00,,---,0.00,VWS V14.00,2013-05-12 12:52:00,
2013-05-12 07:53:00,46.4,39.9,29.06,West,270,0.0,0.0,78,0.00,,---,0.00,VWS V14.00,2013-05-12 12:53:00,
2013-05-12 07:54:00,47.3,40.8,29.06,West,270,0.0,0.0,78,0.00,,---,0.00,VWS V14.00,2013-05-12 12:54:00,
2013-05-12 07:55:00,47.3,40.8,29.06,West,270,0.0,0.0,78,0.00,,---,0.00,VWS V14.00,2013-05-12 12:55:00,
2013-05-12 07:56:00,47.3,40.8,29.06,West,270,0.0,0.0,78,0.00,,---,0.00,VWS V14.00,2013-05-12 12:56:00,
2013-05-12 07:57:00,47.3,40.8,29.06,West,270,0.0,0.0,78,0.00,,---,0.00,VWS V14.00,2013-05-12 12:57:00,
2013-05-12 07:58:00,47.3,40.8,29.06,West,270,0.0,0.0,78,0.00,,---,0.00,VWS V14.00,2013-05-12 12:58:00,
2013-05-12 07:59:00,47.3,40.8,29.06,West,270,0.0,0.0,78,0.00,,---,0.00,VWS V14.00,2013-05-12 12:59:00,
2013-05-12 08:00:00,48.4,39.8,29.06,West,270,0.0,0.0,72,0.00,,---,0.00,VWS V14.00,2013-05-12 13:00:00,
2013-05-12 08:01:00,48.2,39.6,29.06,West,270,0.0,0.0,72,0.00,,---,0.00,VWS V14.00,2013-05-12 13:01:00,
2013-05-12 08:02:00,48.2,39.6,29.06,West,270,0.0,0.0,72,0.00,,---,0.00,VWS V14.00,2013-05-12 13:02:00,
2013-05-12 08:03:00,48.4,39.8,29.06,West,270,0.0,0.0,72,0.00,,---,0.00,VWS V14.00,2013-05-12 13:03:00,
2013-05-12 08:04:00,48.4,39.8,29.06,West,270,0.0,0.0,72,0.00,,---,0.00,VWS V14.00,2013-05-12 13:04:00,
2013-05-12 08:05:00,48.7,40.1,29.06,West,270,0.0,0.0,72,0.00,,---,0.00,VWS V14.00,2013-05-12 13:05:00,
2013-05-12 08:06:00,48.4,39.8,29.06,West,270,0.0,0.0,72,0.00,,---,0.00,VWS V14.00,2013-05-12 13:06:00,
2013-05-12 08:07:00,48.4,39.8,29.06,West,270,0.0,0.0,72,0.00,,---,0.00,VWS V14.00,2013-05-12 13:07:00,
2013-05-12 08:08:00,48.7,40.1,29.06,West,270,0.0,0.0,72,0.00,,---,0.00,VWS V14.00,2013-05-12 13:08:00,
2013-05-12 08:09:00,48.7,40.1,29.06,West,270,0.0,0.0,72,0.00,,---,0.00,VWS V14.00,2013-05-12 13:09:00,
2013-05-12 08:10:00,49.1,40.5,29.06,West,270,0.0,0.0,72,0.00,,---,0.00,VWS V14.00,2013-05-12 13:10:00,
2013-05-12 08:11:00,49.1,40.5,29.06,West,270,0.0,0.0,72,0.00,,---,0.00,VWS V14.00,2013-05-12 13:11:00,
2013-05-12 08:12:00,49.1,40.5,29.06,West,270,0.0,0.0,72,0.00,,---,0.00,VWS V14.00,2013-05-12 13:12:00,
2013-05-12 08:13:00,49.1,40.5,29.06,West,270,0.0,0.0,72,0.00,,---,0.00,VWS V14.00,2013-05-12 13:13:00,
2013-05-12 08:14:00,49.1,40.5,29.06,West,270,0.0,0.0,72,0.00,,---,0.00,VWS V14.00,2013-05-12 13:14:00,
2013-05-12 08:15:00,49.1,40.5,29.06,West,270,0.0,0.0,72,0.00,,---,0.00,VWS V14.00,2013-05-12 13:15:00,
2013-05-12 08:16:00,49.1,40.5,29.06,West,270,0.0,0.0,72,0.00,,---,0.00,VWS V14.00,2013-05-12 13:16:00,
2013-05-12 08:17:00,49.1,40.5,29.06,West,270,0.0,0.0,72,0.00,,---,0.00,VWS V14.00,2013-05-12 13:17:00,
2013-05-12 08:18:00,49.1,40.5,29.06,West,270,0.0,0.0,72,0.00,,---,0.00,VWS V14.00,2013-05-12 13:18:00,
2013-05-12 08:19:00,49.1,40.5,29.06,West,270,0.0,0.0,72,0.00,,---,0.00,VWS V14.00,2013-05-12 13:19:00,
2013-05-12 08:20:00,49.8,41.2,29.06,West,270,0.0,0.0,72,0.00,,---,0.00,VWS V14.00,2013-05-12 13:20:00,
2013-05-12 08:21:00,49.8,41.2,29.06,West,270,0.0,0.0,72,0.00,,---,0.00,VWS V14.00,2013-05-12 13:21:00,
2013-05-12 08:22:00,49.8,41.2,29.06,West,270,0.0,0.0,72,0.00,,---,0.00,VWS V14.00,2013-05-12 13:22:00,
2013-05-12 08:23:00,49.8,41.2,29.06,West,270,0.0,0.0,72,0.00,,---,0.00,VWS V14.00,2013-05-12 13:23:00,
2013-05-12 08:24:00,49.8,41.2,29.06,West,270,0.0,0.0,72,0.00,,---,0.00,VWS V14.00,2013-05-12 13:24:00,
2013-05-12 08:25:00,50.5,41.9,29.06,West,270,0.0,0.0,72,0.00,,---,0.00,VWS V14.00,2013-05-12 13:25:00,
2013-05-12 08:26:00,49.8,41.2,29.06,West,270,0.0,0.0,72,0.00,,---,0.00,VWS V14.00,2013-05-12 13:26:00,
2013-05-12 08:27:00,49.8,41.2,29.06,West,270,0.0,0.0,72,0.00,,---,0.00,VWS V14.00,2013-05-12 13:27:00,
2013-05-12 08:28:00,49.8,41.2,29.06,West,270,0.0,0.0,72,0.00,,---,0.00,VWS V14.00,2013-05-12 13:28:00,
2013-05-12 08:29:00,50.5,41.9,29.06,West,270,0.0,0.0,72,0.00,,---,0.00,VWS V14.00,2013-05-12 13:29:00,
2013-05-12 08:30:00,50.7,42.0,29.06,West,270,0.0,0.0,72,0.00,,---,0.00,VWS V14.00,2013-05-12 13:30:00,
2013-05-12 08:31:00,50.7,42.0,29.06,West,270,0.0,0.0,72,0.00,,---,0.00,VWS V14.00,2013-05-12 13:31:00,
2013-05-12 08:32:00,50.7,42.0,29.06,West,270,0.0,0.0,72,0.00,,---,0.00,VWS V14.00,2013-05-12 13:32:00,
2013-05-12 08:33:00,50.7,42.0,29.06,West,270,0.0,0.0,72,0.00,,---,0.00,VWS V14.00,2013-05-12 13:33:00,
2013-05-12 08:34:00,50.7,42.0,29.06,West,270,0.0,0.0,72,0.00,,---,0.00,VWS V14.00,2013-05-12 13:34:00,
2013-05-12 08:35:00,51.4,42.7,29.06,West,270,0.0,0.0,72,0.00,,---,0.00,VWS V14.00,2013-05-12 13:35:00,
2013-05-12 08:36:00,50.7,42.0,29.06,West,270,0.0,0.0,72,0.00,,---,0.00,VWS V14.00,2013-05-12 13:36:00,
2013-05-12 08:37:00,51.4,42.7,29.06,West,270,0.0,0.0,72,0.00,,---,0.00,VWS V14.00,2013-05-12 13:37:00,
2013-05-12 08:38:00,51.4,42.7,29.06,West,270,0.0,0.0,72,0.00,,---,0.00,VWS V14.00,2013-05-12 13:38:00,
2013-05-12 08:39:00,51.4,42.7,29.06,West,270,0.0,0.0,72,0.00,,---,0.00,VWS V14.00,2013-05-12 13:39:00,
2013-05-12 08:40:00,51.4,42.7,29.06,West,270,0.0,0.0,72,0.00,,---,0.00,VWS V14.00,2013-05-12 13:40:00,
2013-05-12 08:41:00,51.4,42.7,29.06,West,270,0.0,0.0,72,0.00,,---,0.00,VWS V14.00,2013-05-12 13:41:00,
2013-05-12 08:42:00,51.4,42.7,29.06,West,270,0.0,0.0,72,0.00,,---,0.00,VWS V14.00,2013-05-12 13:42:00,
2013-05-12 08:43:00,51.4,42.7,29.06,West,270,0.0,0.0,72,0.00,,---,0.00,VWS V14.00,2013-05-12 13:43:00,
2013-05-12 08:44:00,51.4,42.7,29.06,West,270,0.0,0.0,72,0.00,,---,0.00,VWS V14.00,2013-05-12 13:44:00,
2013-05-12 08:45:00,52.0,43.2,29.06,West,270,0.0,0.0,72,0.00,,---,0.00,VWS V14.00,2013-05-12 13:45:00,
2013-05-12 08:46:00,52.0,43.2,29.06,West,270,0.0,0.0,72,0.00,,---,0.00,VWS V14.00,2013-05-12 13:46:00,
2013-05-12 08:47:00,52.0,43.2,29.06,West,270,0.0,0.0,72,0.00,,---,0.00,VWS V14.00,2013-05-12 13:47:00,
2013-05-12 08:48:00,52.0,43.2,29.06,West,270,0.0,0.0,72,0.00,,---,0.00,VWS V14.00,2013-05-12 13:48:00,
2013-05-12 08:49:00,52.0,43.2,29.06,West,270,0.0,0.0,72,0.00,,---,0.00,VWS V14.00,2013-05-12 13:49:00,
2013-05-12 08:50:00,52.0,43.2,29.06,West,270,0.0,0.0,72,0.00,,---,0.00,VWS V14.00,2013-05-12 13:50:00,
2013-05-12 08:51:00,52.0,43.2,29.06,West,270,0.0,0.0,72,0.00,,---,0.00,VWS V14.00,2013-05-12 13:51:00,
2013-05-12 08:52:00,52.0,43.2,29.06,West,270,0.0,0.0,72,0.00,,---,0.00,VWS V14.00,2013-05-12 13:52:00,
2013-05-12 08:53:00,52.0,43.2,29.06,West,270,0.0,0.0,72,0.00,,---,0.00,VWS V14.00,2013-05-12 13:53:00,
2013-05-12 08:54:00,52.0,43.2,29.06,West,270,0.0,0.0,72,0.00,,---,0.00,VWS V14.00,2013-05-12 13:54:00,
2013-05-12 08:55:00,52.3,43.6,29.06,West,270,0.0,0.0,72,0.00,,---,0.00,VWS V14.00,2013-05-12 13:55:00,
2013-05-12 08:56:00,52.3,43.6,29.06,West,270,0.0,0.0,72,0.00,,---,0.00,VWS V14.00,2013-05-12 13:56:00,
2013-05-12 08:57:00,52.3,43.6,29.06,West,270,0.0,0.0,72,0.00,,---,0.00,VWS V14.00,2013-05-12 13:57:00,
2013-05-12 08:58:00,52.3,43.6,29.06,West,270,0.0,0.0,72,0.00,,---,0.00,VWS V14.00,2013-05-12 13:58:00,
2013-05-12 08:59:00,52.3,43.6,29.06,West,270,0.0,0.0,72,0.00,,---,0.00,VWS V14.00,2013-05-12 13:59:00,
2013-05-12 09:00:00,52.5,43.8,29.06,West,270,0.0,0.0,72,0.00,,---,0.00,VWS V14.00,2013-05-12 14:00:00,
2013-05-12 09:01:00,52.0,43.2,29.06,West,270,0.0,0.0,72,0.00,,---,0.00,VWS V14.00,2013-05-12 14:01:00,
2013-05-12 09:02:00,52.0,43.2,29.06,West,270,0.0,0.0,72,0.00,,---,0.00,VWS V14.00,2013-05-12 14:02:00,
2013-05-12 09:03:00,52.5,43.8,29.06,West,270,0.0,0.0,72,0.00,,---,0.00,VWS V14.00,2013-05-12 14:03:00,
2013-05-12 09:04:00,52.5,43.8,29.06,West,270,0.0,0.0,72,0.00,,---,0.00,VWS V14.00,2013-05-12 14:04:00,
2013-05-12 09:05:00,52.5,43.8,29.06,West,270,0.0,0.0,72,0.00,,---,0.00,VWS V14.00,2013-05-12 14:05:00,
2013-05-12 09:06:00,52.5,43.8,29.06,West,270,0.0,0.0,72,0.00,,---,0.00,VWS V14.00,2013-05-12 14:06:00,
2013-05-12 09:07:00,52.5,43.8,29.06,West,270,0.0,0.0,72,0.00,,---,0.00,VWS V14.00,2013-05-12 14:07:00,
2013-05-12 09:09:00,52.5,43.8,29.06,West,270,0.0,0.0,72,0.00,,---,0.00,VWS V14.00,2013-05-12 14:09:00,
2013-05-12 09:10:00,49.3,40.7,29.06,West,270,0.0,0.0,72,0.00,,---,0.00,VWS V14.00,2013-05-12 14:10:00,
2013-05-12 09:11:00,52.5,43.8,29.06,West,270,0.0,0.0,72,0.00,,---,0.00,VWS V14.00,2013-05-12 14:11:00,
2013-05-12 09:12:00,49.3,40.7,29.06,West,270,0.0,0.0,72,0.00,,---,0.00,VWS V14.00,2013-05-12 14:12:00,
2013-05-12 09:13:00,49.3,40.7,29.06,West,270,0.0,0.0,72,0.00,,---,0.00,VWS V14.00,2013-05-12 14:13:00,
2013-05-12 09:14:00,49.3,40.7,29.06,West,270,0.0,0.0,72,0.00,,---,0.00,VWS V14.00,2013-05-12 14:14:00,
2013-05-12 09:15:00,50.9,42.2,29.06,West,270,0.0,0.0,72,0.00,,---,0.00,VWS V14.00,2013-05-12 14:15:00,
2013-05-12 09:16:00,49.3,40.7,29.06,West,270,0.0,0.0,72,0.00,,---,0.00,VWS V14.00,2013-05-12 14:16:00,
2013-05-12 09:17:00,49.3,40.7,29.06,West,270,0.0,0.0,72,0.00,,---,0.00,VWS V14.00,2013-05-12 14:17:00,
2013-05-12 09:18:00,49.3,40.7,29.06,West,270,0.0,0.0,72,0.00,,---,0.00,VWS V14.00,2013-05-12 14:18:00,
2013-05-12 09:19:00,50.9,42.2,29.06,West,270,0.0,0.0,72,0.00,,---,0.00,VWS V14.00,2013-05-12 14:19:00,
2013-05-12 09:20:00,50.4,41.7,29.06,West,270,0.0,0.0,72,0.00,,---,0.00,VWS V14.00,2013-05-12 14:20:00,
2013-05-12 09:21:00,50.4,41.7,29.06,West,270,0.0,0.0,72,0.00,,---,0.00,VWS V14.00,2013-05-12 14:21:00,
2013-05-12 09:22:00,50.4,41.7,29.06,West,270,0.0,0.0,72,0.00,,---,0.00,VWS V14.00,2013-05-12 14:22:00,
2013-05-12 09:23:00,50.4,41.7,29.06,West,270,0.0,0.0,72,0.00,,---,0.00,VWS V14.00,2013-05-12 14:23:00,
2013-05-12 09:24:00,50.7,42.0,29.06,West,270,0.0,0.0,72,0.00,,---,0.00,VWS V14.00,2013-05-12 14:24:00,
2013-05-12 09:25:00,50.7,42.0,29.06,West,270,0.0,0.0,72,0.00,,---,0.00,VWS V14.00,2013-05-12 14:25:00,
2013-05-12 09:26:00,50.7,42.0,29.06,West,270,0.0,0.0,72,0.00,,---,0.00,VWS V14.00,2013-05-12 14:26:00,
2013-05-12 09:27:00,50.7,42.0,29.06,West,270,0.0,0.0,72,0.00,,---,0.00,VWS V14.00,2013-05-12 14:27:00,
2013-05-12 09:28:00,50.7,42.0,29.06,West,270,0.0,0.0,72,0.00,,---,0.00,VWS V14.00,2013-05-12 14:28:00,
2013-05-12 09:29:00,50.9,42.2,29.06,West,270,0.0,0.0,72,0.00,,---,0.00,VWS V14.00,2013-05-12 14:29:00,
2013-05-12 09:30:00,50.9,42.2,29.06,West,270,0.0,0.0,72,0.00,,---,0.00,VWS V14.00,2013-05-12 14:30:00,
2013-05-12 09:31:00,50.9,42.2,29.06,West,270,0.0,0.0,72,0.00,,---,0.00,VWS V14.00,2013-05-12 14:31:00,
2013-05-12 09:32:00,50.9,42.2,29.06,West,270,0.0,0.0,72,0.00,,---,0.00,VWS V14.00,2013-05-12 14:32:00,
2013-05-12 09:33:00,50.9,42.2,29.06,West,270,0.0,0.0,72,0.00,,---,0.00,VWS V14.00,2013-05-12 14:33:00,
2013-05-12 09:34:00,50.9,42.2,29.06,West,270,0.0,0.0,72,0.00,,---,0.00,VWS V14.00,2013-05-12 14:34:00,
2013-05-12 09:35:00,51.6,42.9,29.06,West,270,0.0,0.0,72,0.00,,---,0.00,VWS V14.00,2013-05-12 14:35:00,
2013-05-12 09:36:00,50.9,42.2,29.06,West,270,0.0,0.0,72,0.00,,---,0.00,VWS V14.00,2013-05-12 14:36:00,
2013-05-12 09:37:00,50.9,42.2,29.06,West,270,0.0,0.0,72,0.00,,---,0.00,VWS V14.00,2013-05-12 14:37:00,
2013-05-12 09:38:00,51.6,42.9,29.06,West,270,0.0,0.0,72,0.00,,---,0.00,VWS V14.00,2013-05-12 14:38:00,
2013-05-12 09:39:00,51.6,42.9,29.06,West,270,0.0,0.0,72,0.00,,---,0.00,VWS V14.00,2013-05-12 14:39:00,
2013-05-12 09:40:00,51.6,42.9,29.06,West,270,0.0,0.0,72,0.00,,---,0.00,VWS V14.00,2013-05-12 14:40:00,
2013-05-12 09:41:00,51.6,42.9,29.06,West,270,0.0,0.0,72,0.00,,---,0.00,VWS V14.00,2013-05-12 14:41:00,
2013-05-12 09:42:00,51.6,42.9,29.06,West,270,0.0,0.0,72,0.00,,---,0.00,VWS V14.00,2013-05-12 14:42:00,
2013-05-12 09:43:00,51.6,42.9,29.06,West,270,0.0,0.0,72,0.00,,---,0.00,VWS V14.00,2013-05-12 14:43:00,
2013-05-12 09:44:00,51.6,42.9,29.06,West,270,0.0,0.0,72,0.00,,---,0.00,VWS V14.00,2013-05-12 14:44:00,
2013-05-12 09:45:00,52.0,43.2,29.06,West,270,0.0,0.0,72,0.00,,---,0.00,VWS V14.00,2013-05-12 14:45:00,
2013-05-12 09:46:00,51.6,42.9,29.06,West,270,0.0,0.0,72,0.00,,---,0.00,VWS V14.00,2013-05-12 14:46:00,
2013-05-12 09:47:00,52.0,43.2,29.06,West,270,0.0,0.0,72,0.00,,---,0.00,VWS V14.00,2013-05-12 14:47:00,
2013-05-12 09:48:00,52.0,43.2,29.06,West,270,0.0,0.0,72,0.00,,---,0.00,VWS V14.00,2013-05-12 14:48:00,
2013-05-12 09:49:00,52.0,43.2,29.06,West,270,0.0,0.0,72,0.00,,---,0.00,VWS V14.00,2013-05-12 14:49:00,
2013-05-12 09:50:00,52.0,43.2,29.06,West,270,0.0,0.0,72,0.00,,---,0.00,VWS V14.00,2013-05-12 14:50:00,
2013-05-12 09:51:00,52.0,43.2,29.06,West,270,0.0,0.0,72,0.00,,---,0.00,VWS V14.00,2013-05-12 14:51:00,
2013-05-12 09:52:00,52.0,43.2,29.06,West,270,0.0,0.0,72,0.00,,---,0.00,VWS V14.00,2013-05-12 14:52:00,
2013-05-12 09:53:00,52.0,43.2,29.06,West,270,0.0,0.0,72,0.00,,---,0.00,VWS V14.00,2013-05-12 14:53:00,
2013-05-12 09:54:00,52.0,43.2,29.06,West,270,0.0,0.0,72,0.00,,---,0.00,VWS V14.00,2013-05-12 14:54:00,
2013-05-12 09:55:00,53.6,44.1,29.06,West,270,0.0,0.0,70,0.00,,---,0.00,VWS V14.00,2013-05-12 14:55:00,
2013-05-12 09:56:00,53.6,44.1,29.06,West,270,0.0,0.0,70,0.00,,---,0.00,VWS V14.00,2013-05-12 14:56:00,
2013-05-12 09:57:00,53.6,44.1,29.06,West,270,0.0,0.0,70,0.00,,---,0.00,VWS V14.00,2013-05-12 14:57:00,
2013-05-12 09:58:00,53.6,44.1,29.06,West,270,0.0,0.0,70,0.00,,---,0.00,VWS V14.00,2013-05-12 14:58:00,
2013-05-12 09:59:00,53.6,44.1,29.06,West,270,0.0,0.0,70,0.00,,---,0.00,VWS V14.00,2013-05-12 14:59:00,
2013-05-12 10:00:00,53.8,44.2,29.06,West,270,0.0,0.0,70,0.00,,---,0.00,VWS V14.00,2013-05-12 15:00:00,
2013-05-12 10:01:00,53.8,44.2,29.06,West,270,0.0,0.0,70,0.00,,---,0.00,VWS V14.00,2013-05-12 15:01:00,
2013-05-12 10:02:00,53.8,44.2,29.06,West,270,0.0,0.0,70,0.00,,---,0.00,VWS V14.00,2013-05-12 15:02:00,
2013-05-12 10:03:00,53.8,44.2,29.06,West,270,0.0,0.0,70,0.00,,---,0.00,VWS V14.00,2013-05-12 15:03:00,
2013-05-12 10:04:00,53.1,44.3,29.06,West,270,0.0,0.0,72,0.00,,---,0.00,VWS V14.00,2013-05-12 15:04:00,
2013-05-12 10:05:00,51.8,43.1,29.06,West,270,0.0,0.0,72,0.00,,---,0.00,VWS V14.00,2013-05-12 15:05:00,
2013-05-12 10:06:00,51.8,43.1,29.06,West,270,0.0,0.0,72,0.00,,---,0.00,VWS V14.00,2013-05-12 15:06:00,
2013-05-12 10:07:00,51.8,43.1,29.06,West,270,0.0,0.0,72,0.00,,---,0.00,VWS V14.00,2013-05-12 15:07:00,
2013-05-12 10:08:00,51.8,43.1,29.06,West,270,0.0,0.0,72,0.00,,---,0.00,VWS V14.00,2013-05-12 15:08:00,
2013-05-12 10:09:00,51.8,43.1,29.06,West,270,0.0,0.0,72,0.00,,---,0.00,VWS V14.00,2013-05-12 15:09:00,
2013-05-12 10:10:00,52.2,43.4,29.06,West,270,0.0,0.0,72,0.00,,---,0.00,VWS V14.00,2013-05-12 15:10:00,
2013-05-12 10:11:00,51.8,43.1,29.06,West,270,0.0,0.0,72,0.00,,---,0.00,VWS V14.00,2013-05-12 15:11:00,
2013-05-12 10:12:00,51.8,43.1,29.06,West,270,0.0,0.0,72,0.00,,---,0.00,VWS V14.00,2013-05-12 15:12:00,
2013-05-12 10:13:00,52.2,43.4,29.06,West,270,0.0,0.0,72,0.00,,---,0.00,VWS V14.00,2013-05-12 15:13:00,
2013-05-12 10:14:00,52.2,43.4,29.06,West,270,0.0,0.0,72,0.00,,---,0.00,VWS V14.00,2013-05-12 15:14:00,
2013-05-12 10:15:00,52.2,43.4,29.06,West,270,0.0,0.0,72,0.00,,---,0.00,VWS V14.00,2013-05-12 15:15:00,
2013-05-12 10:16:00,52.2,43.4,29.06,West,270,0.0,0.0,72,0.00,,---,0.00,VWS V14.00,2013-05-12 15:16:00,
2013-05-12 10:17:00,52.2,43.4,29.06,West,270,0.0,0.0,72,0.00,,---,0.00,VWS V14.00,2013-05-12 15:17:00,
2013-05-12 10:18:00,52.2,43.4,29.06,West,270,0.0,0.0,72,0.00,,---,0.00,VWS V14.00,2013-05-12 15:18:00,
2013-05-12 10:19:00,52.2,43.4,29.06,West,270,0.0,0.0,72,0.00,,---,0.00,VWS V14.00,2013-05-12 15:19:00,
2013-05-12 10:20:00,54.1,44.6,29.06,West,270,0.0,0.0,70,0.00,,---,0.00,VWS V14.00,2013-05-12 15:20:00,
2013-05-12 10:21:00,54.1,44.6,29.06,West,270,0.0,0.0,70,0.00,,---,0.00,VWS V14.00,2013-05-12 15:21:00,
2013-05-12 10:22:00,54.1,44.6,29.06,West,270,0.0,0.0,70,0.00,,---,0.00,VWS V14.00,2013-05-12 15:22:00,
2013-05-12 10:23:00,54.1,44.6,29.06,West,270,0.0,0.0,70,0.00,,---,0.00,VWS V14.00,2013-05-12 15:23:00,
2013-05-12 10:24:00,54.1,44.6,29.06,West,270,0.0,0.0,70,0.00,,---,0.00,VWS V14.00,2013-05-12 15:24:00,
2013-05-12 10:25:00,53.4,44.6,29.06,West,270,0.0,0.0,72,0.00,,---,0.00,VWS V14.00,2013-05-12 15:25:00,
2013-05-12 10:26:00,54.1,44.6,29.06,West,270,0.0,0.0,70,0.00,,---,0.00,VWS V14.00,2013-05-12 15:26:00,
2013-05-12 10:27:00,53.4,44.6,29.06,West,270,0.0,0.0,72,0.00,,---,0.00,VWS V14.00,2013-05-12 15:27:00,
2013-05-12 10:28:00,53.4,44.6,29.06,West,270,0.0,0.0,72,0.00,,---,0.00,VWS V14.00,2013-05-12 15:28:00,
2013-05-12 10:29:00,54.0,44.4,29.06,West,270,0.0,0.0,70,0.00,,---,0.00,VWS V14.00,2013-05-12 15:29:00,
2013-05-12 10:30:00,53.8,44.2,29.06,West,270,0.0,0.0,70,0.00,,---,0.00,VWS V14.00,2013-05-12 15:30:00,
2013-05-12 10:31:00,53.8,44.2,29.06,West,270,0.0,0.0,70,0.00,,---,0.00,VWS V14.00,2013-05-12 15:31:00,
2013-05-12 10:32:00,53.8,44.2,29.06,West,270,0.0,0.0,70,0.00,,---,0.00,VWS V14.00,2013-05-12 15:32:00,
2013-05-12 10:33:00,53.8,44.2,29.06,West,270,0.0,0.0,70,0.00,,---,0.00,VWS V14.00,2013-05-12 15:33:00,
2013-05-12 10:34:00,53.8,44.2,29.06,West,270,0.0,0.0,70,0.00,,---,0.00,VWS V14.00,2013-05-12 15:34:00,
2013-05-12 10:35:00,52.0,43.2,29.06,West,270,0.0,0.0,72,0.00,,---,0.00,VWS V14.00,2013-05-12 15:35:00,
2013-05-12 10:36:00,53.8,44.2,29.06,West,270,0.0,0.0,70,0.00,,---,0.00,VWS V14.00,2013-05-12 15:36:00,
2013-05-12 10:37:00,53.8,44.2,29.06,West,270,0.0,0.0,70,0.00,,---,0.00,VWS V14.00,2013-05-12 15:37:00,
2013-05-12 10:38:00,52.0,43.2,29.06,West,270,0.0,0.0,72,0.00,,---,0.00,VWS V14.00,2013-05-12 15:38:00,
2013-05-12 10:39:00,52.0,43.2,29.06,West,270,0.0,0.0,72,0.00,,---,0.00,VWS V14.00,2013-05-12 15:39:00,
2013-05-12 10:40:00,52.0,43.2,29.06,West,270,0.0,0.0,72,0.00,,---,0.00,VWS V14.00,2013-05-12 15:40:00,
2013-05-12 10:41:00,52.0,43.2,29.06,West,270,0.0,0.0,72,0.00,,---,0.00,VWS V14.00,2013-05-12 15:41:00,
2013-05-12 10:42:00,52.0,43.2,29.06,West,270,0.0,0.0,72,0.00,,---,0.00,VWS V14.00,2013-05-12 15:42:00,
2013-05-12 10:43:00,52.0,43.2,29.06,West,270,0.0,0.0,72,0.00,,---,0.00,VWS V14.00,2013-05-12 15:43:00,
2013-05-12 10:44:00,52.0,43.2,29.06,West,270,0.0,0.0,72,0.00,,---,0.00,VWS V14.00,2013-05-12 15:44:00,
2013-05-12 10:45:00,53.6,44.1,29.06,West,270,0.0,0.0,70,0.00,,---,0.00,VWS V14.00,2013-05-12 15:45:00,
2013-05-12 10:46:00,52.0,43.2,29.06,West,270,0.0,0.0,72,0.00,,---,0.00,VWS V14.00,2013-05-12 15:46:00,
2013-05-12 10:47:00,53.6,44.1,29.06,West,270,0.0,0.0,70,0.00,,---,0.00,VWS V14.00,2013-05-12 15:47:00,
2013-05-12 10:48:00,53.6,44.1,29.06,West,270,0.0,0.0,70,0.00,,---,0.00,VWS V14.00,2013-05-12 15:48:00,
2013-05-12 10:49:00,53.6,44.1,29.06,West,270,0.0,0.0,70,0.00,,---,0.00,VWS V14.00,2013-05-12 15:49:00,
2013-05-12 10:50:00,53.6,44.1,29.06,West,270,0.0,0.0,70,0.00,,---,0.00,VWS V14.00,2013-05-12 15:50:00,
2013-05-12 10:51:00,53.6,44.1,29.06,West,270,0.0,0.0,70,0.00,,---,0.00,VWS V14.00,2013-05-12 15:51:00,
2013-05-12 10:52:00,53.6,44.1,29.06,West,270,0.0,0.0,70,0.00,,---,0.00,VWS V14.00,2013-05-12 15:52:00,
2013-05-12 10:53:00,53.6,44.1,29.06,West,270,0.0,0.0,70,0.00,,---,0.00,VWS V14.00,2013-05-12 15:53:00,
2013-05-12 10:54:00,53.6,44.1,29.06,West,270,0.0,0.0,70,0.00,,---,0.00,VWS V14.00,2013-05-12 15:54:00,
2013-05-12 10:55:00,54.0,44.4,29.06,West,270,0.0,0.0,70,0.00,,---,0.00,VWS V14.00,2013-05-12 15:55:00,
2013-05-12 10:56:00,54.0,44.4,29.06,West,270,0.0,0.0,70,0.00,,---,0.00,VWS V14.00,2013-05-12 15:56:00,
2013-05-12 10:57:00,54.0,44.4,29.06,West,270,0.0,0.0,70,0.00,,---,0.00,VWS V14.00,2013-05-12 15:57:00,
2013-05-12 10:58:00,54.0,44.4,29.06,West,270,0.0,0.0,70,0.00,,---,0.00,VWS V14.00,2013-05-12 15:58:00,
2013-05-12 10:59:00,54.0,44.4,29.06,West,270,0.0,0.0,70,0.00,,---,0.00,VWS V14.00,2013-05-12 15:59:00,
2013-05-12 11:00:00,54.0,44.4,29.06,West,270,0.0,0.0,70,0.00,,---,0.00,VWS V14.00,2013-05-12 16:00:00,
2013-05-12 11:01:00,54.0,44.4,29.06,West,270,0.0,0.0,70,0.00,,---,0.00,VWS V14.00,2013-05-12 16:01:00,
2013-05-12 11:02:00,54.0,44.4,29.06,West,270,0.0,0.0,70,0.00,,---,0.00,VWS V14.00,2013-05-12 16:02:00,
2013-05-12 11:03:00,54.0,44.4,29.06,West,270,0.0,0.0,70,0.00,,---,0.00,VWS V14.00,2013-05-12 16:03:00,
2013-05-12 11:04:00,54.0,44.4,29.06,West,270,0.0,0.0,70,0.00,,---,0.00,VWS V14.00,2013-05-12 16:04:00,
2013-05-12 11:05:00,54.0,44.4,29.06,West,270,0.0,0.0,70,0.00,,---,0.00,VWS V14.00,2013-05-12 16:05:00,
2013-05-12 11:06:00,54.0,44.4,29.06,West,270,0.0,0.0,70,0.00,,---,0.00,VWS V14.00,2013-05-12 16:06:00,
2013-05-12 11:07:00,54.0,44.4,29.06,West,270,0.0,0.0,70,0.00,,---,0.00,VWS V14.00,2013-05-12 16:07:00,
2013-05-12 11:08:00,54.0,44.4,29.06,West,270,0.0,0.0,70,0.00,,---,0.00,VWS V14.00,2013-05-12 16:08:00,
2013-05-12 11:09:00,54.0,44.4,29.06,West,270,0.0,0.0,70,0.00,,---,0.00,VWS V14.00,2013-05-12 16:09:00,
2013-05-12 11:10:00,55.2,45.6,29.06,West,270,0.0,0.0,70,0.00,,---,0.00,VWS V14.00,2013-05-12 16:10:00,
2013-05-12 11:11:00,54.0,44.4,29.06,West,270,0.0,0.0,70,0.00,,---,0.00,VWS V14.00,2013-05-12 16:11:00,
2013-05-12 11:12:00,54.0,44.4,29.06,West,270,0.0,0.0,70,0.00,,---,0.00,VWS V14.00,2013-05-12 16:12:00,
2013-05-12 11:13:00,55.2,45.6,29.06,West,270,0.0,0.0,70,0.00,,---,0.00,VWS V14.00,2013-05-12 16:13:00,
2013-05-12 11:14:00,55.2,45.6,29.06,West,270,0.0,0.0,70,0.00,,---,0.00,VWS V14.00,2013-05-12 16:14:00,
2013-05-12 11:15:00,54.5,44.9,29.06,West,270,0.0,0.0,70,0.00,,---,0.00,VWS V14.00,2013-05-12 16:15:00,
2013-05-12 11:16:00,54.5,44.9,29.06,West,270,0.0,0.0,70,0.00,,---,0.00,VWS V14.00,2013-05-12 16:16:00,
2013-05-12 11:17:00,54.5,44.9,29.06,West,270,0.0,0.0,70,0.00,,---,0.00,VWS V14.00,2013-05-12 16:17:00,
2013-05-12 11:18:00,54.5,44.9,29.06,West,270,0.0,0.0,70,0.00,,---,0.00,VWS V14.00,2013-05-12 16:18:00,
2013-05-12 11:19:00,54.5,44.9,29.06,West,270,0.0,0.0,70,0.00,,---,0.00,VWS V14.00,2013-05-12 16:19:00,
2013-05-12 11:20:00,54.5,44.9,29.06,West,270,0.0,0.0,70,0.00,,---,0.00,VWS V14.00,2013-05-12 16:20:00,
2013-05-12 11:21:00,54.5,44.9,29.06,West,270,0.0,0.0,70,0.00,,---,0.00,VWS V14.00,2013-05-12 16:21:00,
2013-05-12 11:22:00,54.5,44.9,29.06,West,270,0.0,0.0,70,0.00,,---,0.00,VWS V14.00,2013-05-12 16:22:00,
2013-05-12 11:23:00,54.5,44.9,29.06,West,270,0.0,0.0,70,0.00,,---,0.00,VWS V14.00,2013-05-12 16:23:00,
2013-05-12 11:24:00,54.5,44.9,29.06,West,270,0.0,0.0,70,0.00,,---,0.00,VWS V14.00,2013-05-12 16:24:00,
2013-05-12 11:25:00,54.5,44.9,29.06,West,270,0.0,0.0,70,0.00,,---,0.00,VWS V14.00,2013-05-12 16:25:00,
2013-05-12 11:26:00,54.5,44.9,29.06,West,270,0.0,0.0,70,0.00,,---,0.00,VWS V14.00,2013-05-12 16:26:00,
2013-05-12 11:27:00,54.5,44.9,29.06,West,270,0.0,0.0,70,0.00,,---,0.00,VWS V14.00,2013-05-12 16:27:00,
2013-05-12 11:28:00,54.5,44.9,29.06,West,270,0.0,0.0,70,0.00,,---,0.00,VWS V14.00,2013-05-12 16:28:00,
2013-05-12 11:29:00,54.5,44.9,29.06,West,270,0.0,0.0,70,0.00,,---,0.00,VWS V14.00,2013-05-12 16:29:00,
2013-05-12 11:30:00,54.5,44.9,29.06,West,270,0.0,0.0,70,0.00,,---,0.00,VWS V14.00,2013-05-12 16:30:00,
2013-05-12 11:31:00,54.5,44.9,29.06,West,270,0.0,0.0,70,0.00,,---,0.00,VWS V14.00,2013-05-12 16:31:00,
2013-05-12 11:32:00,54.5,44.9,29.06,West,270,0.0,0.0,70,0.00,,---,0.00,VWS V14.00,2013-05-12 16:32:00,
2013-05-12 11:33:00,54.5,44.9,29.06,West,270,0.0,0.0,70,0.00,,---,0.00,VWS V14.00,2013-05-12 16:33:00,
2013-05-12 11:34:00,54.5,44.9,29.06,West,270,0.0,0.0,70,0.00,,---,0.00,VWS V14.00,2013-05-12 16:34:00,
2013-05-12 11:35:00,54.5,44.9,29.06,West,270,0.0,0.0,70,0.00,,---,0.00,VWS V14.00,2013-05-12 16:35:00,
2013-05-12 11:36:00,54.5,44.9,29.06,West,270,0.0,0.0,70,0.00,,---,0.00,VWS V14.00,2013-05-12 16:36:00,
2013-05-12 11:37:00,54.5,44.9,29.06,West,270,0.0,0.0,70,0.00,,---,0.00,VWS V14.00,2013-05-12 16:37:00,
2013-05-12 11:38:00,54.5,44.9,29.06,West,270,0.0,0.0,70,0.00,,---,0.00,VWS V14.00,2013-05-12 16:38:00,
2013-05-12 11:39:00,54.5,44.9,29.06,West,270,0.0,0.0,70,0.00,,---,0.00,VWS V14.00,2013-05-12 16:39:00,
2013-05-12 11:40:00,54.5,44.9,29.06,West,270,0.0,0.0,70,0.00,,---,0.00,VWS V14.00,2013-05-12 16:40:00,
2013-05-12 11:41:00,54.5,44.9,29.06,West,270,0.0,0.0,70,0.00,,---,0.00,VWS V14.00,2013-05-12 16:41:00,
2013-05-12 11:42:00,54.5,44.9,29.06,West,270,0.0,0.0,70,0.00,,---,0.00,VWS V14.00,2013-05-12 16:42:00,
2013-05-12 11:43:00,54.5,44.9,29.06,West,270,0.0,0.0,70,0.00,,---,0.00,VWS V14.00,2013-05-12 16:43:00,
2013-05-12 11:44:00,54.5,44.9,29.06,West,270,0.0,0.0,70,0.00,,---,0.00,VWS V14.00,2013-05-12 16:44:00,
2013-05-12 11:45:00,54.5,44.9,29.06,West,270,0.0,0.0,70,0.00,,---,0.00,VWS V14.00,2013-05-12 16:45:00,
2013-05-12 11:46:00,54.5,44.9,29.06,West,270,0.0,0.0,70,0.00,,---,0.00,VWS V14.00,2013-05-12 16:46:00,
2013-05-12 11:47:00,54.5,44.9,29.06,West,270,0.0,0.0,70,0.00,,---,0.00,VWS V14.00,2013-05-12 16:47:00,
2013-05-12 11:48:00,54.5,44.9,29.06,West,270,0.0,0.0,70,0.00,,---,0.00,VWS V14.00,2013-05-12 16:48:00,
2013-05-12 11:49:00,54.5,44.9,29.06,West,270,0.0,0.0,70,0.00,,---,0.00,VWS V14.00,2013-05-12 16:49:00,
2013-05-12 11:50:00,54.5,44.9,29.06,West,270,0.0,0.0,70,0.00,,---,0.00,VWS V14.00,2013-05-12 16:50:00,
2013-05-12 11:51:00,54.5,44.9,29.06,West,270,0.0,0.0,70,0.00,,---,0.00,VWS V14.00,2013-05-12 16:51:00,
2013-05-12 11:52:00,54.5,44.9,29.06,West,270,0.0,0.0,70,0.00,,---,0.00,VWS V14.00,2013-05-12 16:52:00,
2013-05-12 11:53:00,54.5,44.9,29.06,West,270,0.0,0.0,70,0.00,,---,0.00,VWS V14.00,2013-05-12 16:53:00,
2013-05-12 11:54:00,54.5,44.9,29.06,West,270,0.0,0.0,70,0.00,,---,0.00,VWS V14.00,2013-05-12 16:54:00,
2013-05-12 11:55:00,54.5,44.9,29.06,West,270,0.0,0.0,70,0.00,,---,0.00,VWS V14.00,2013-05-12 16:55:00,
2013-05-12 11:56:00,54.5,44.9,29.06,West,270,0.0,0.0,70,0.00,,---,0.00,VWS V14.00,2013-05-12 16:56:00,
2013-05-12 11:57:00,54.5,44.9,29.06,West,270,0.0,0.0,70,0.00,,---,0.00,VWS V14.00,2013-05-12 16:57:00,
2013-05-12 11:58:00,54.5,44.9,29.06,West,270,0.0,0.0,70,0.00,,---,0.00,VWS V14.00,2013-05-12 16:58:00,
2013-05-12 11:59:00,54.5,44.9,29.06,West,270,0.0,0.0,70,0.00,,---,0.00,VWS V14.00,2013-05-12 16:59:00,
2013-05-12 12:00:00,55.0,45.5,29.06,West,270,0.0,0.0,70,0.00,,---,0.00,VWS V14.00,2013-05-12 17:00:00,
2013-05-12 12:01:00,54.5,44.9,29.06,West,270,0.0,0.0,70,0.00,,---,0.00,VWS V14.00,2013-05-12 17:01:00,
2013-05-12 12:02:00,54.5,44.9,29.06,West,270,0.0,0.0,70,0.00,,---,0.00,VWS V14.00,2013-05-12 17:02:00,
2013-05-12 12:03:00,55.0,45.5,29.06,West,270,0.0,0.0,70,0.00,,---,0.00,VWS V14.00,2013-05-12 17:03:00,
2013-05-12 12:04:00,55.0,45.5,29.06,West,270,0.0,0.0,70,0.00,,---,0.00,VWS V14.00,2013-05-12 17:04:00,
2013-05-12 12:05:00,55.0,45.5,29.06,West,270,0.0,0.0,70,0.00,,---,0.00,VWS V14.00,2013-05-12 17:05:00,
2013-05-12 12:06:00,55.0,45.5,29.06,West,270,0.0,0.0,70,0.00,,---,0.00,VWS V14.00,2013-05-12 17:06:00,
2013-05-12 12:07:00,55.0,45.5,29.06,West,270,0.0,0.0,70,0.00,,---,0.00,VWS V14.00,2013-05-12 17:07:00,
2013-05-12 12:08:00,55.0,45.5,29.06,West,270,0.0,0.0,70,0.00,,---,0.00,VWS V14.00,2013-05-12 17:08:00,
2013-05-12 12:09:00,55.0,45.5,29.06,West,270,0.0,0.0,70,0.00,,---,0.00,VWS V14.00,2013-05-12 17:09:00,
2013-05-12 12:10:00,55.0,45.5,29.06,West,270,0.0,0.0,70,0.00,,---,0.00,VWS V14.00,2013-05-12 17:10:00,
2013-05-12 12:11:00,55.0,45.5,29.06,West,270,0.0,0.0,70,0.00,,---,0.00,VWS V14.00,2013-05-12 17:11:00,
2013-05-12 12:12:00,55.0,45.5,29.06,West,270,0.0,0.0,70,0.00,,---,0.00,VWS V14.00,2013-05-12 17:12:00,
2013-05-12 12:13:00,55.0,45.5,29.06,West,270,0.0,0.0,70,0.00,,---,0.00,VWS V14.00,2013-05-12 17:13:00,
2013-05-12 12:14:00,55.0,45.5,29.06,West,270,0.0,0.0,70,0.00,,---,0.00,VWS V14.00,2013-05-12 17:14:00,
2013-05-12 12:15:00,55.0,45.5,29.06,West,270,0.0,0.0,70,0.00,,---,0.00,VWS V14.00,2013-05-12 17:15:00,
2013-05-12 12:16:00,55.0,45.5,29.06,West,270,0.0,0.0,70,0.00,,---,0.00,VWS V14.00,2013-05-12 17:16:00,
2013-05-12 12:17:00,55.0,45.5,29.06,West,270,0.0,0.0,70,0.00,,---,0.00,VWS V14.00,2013-05-12 17:17:00,
2013-05-12 12:18:00,55.0,45.5,29.06,West,270,0.0,0.0,70,0.00,,---,0.00,VWS V14.00,2013-05-12 17:18:00,
2013-05-12 12:19:00,55.0,45.5,29.06,West,270,0.0,0.0,70,0.00,,---,0.00,VWS V14.00,2013-05-12 17:19:00,
2013-05-12 12:20:00,55.0,45.5,29.06,West,270,0.0,0.0,70,0.00,,---,0.00,VWS V14.00,2013-05-12 17:20:00,
2013-05-12 12:21:00,55.0,45.5,29.06,West,270,0.0,0.0,70,0.00,,---,0.00,VWS V14.00,2013-05-12 17:21:00,
2013-05-12 12:22:00,55.0,45.5,29.06,West,270,0.0,0.0,70,0.00,,---,0.00,VWS V14.00,2013-05-12 17:22:00,
2013-05-12 12:23:00,55.0,45.5,29.06,West,270,0.0,0.0,70,0.00,,---,0.00,VWS V14.00,2013-05-12 17:23:00,
2013-05-12 12:24:00,55.0,45.5,29.06,West,270,0.0,0.0,70,0.00,,---,0.00,VWS V14.00,2013-05-12 17:24:00,
2013-05-12 12:25:00,55.0,45.5,29.06,West,270,0.0,0.0,70,0.00,,---,0.00,VWS V14.00,2013-05-12 17:25:00,
2013-05-12 12:26:00,55.0,45.5,29.06,West,270,0.0,0.0,70,0.00,,---,0.00,VWS V14.00,2013-05-12 17:26:00,
2013-05-12 12:27:00,55.0,45.5,29.06,West,270,0.0,0.0,70,0.00,,---,0.00,VWS V14.00,2013-05-12 17:27:00,
2013-05-12 12:28:00,55.0,45.5,29.06,West,270,0.0,0.0,70,0.00,,---,0.00,VWS V14.00,2013-05-12 17:28:00,
2013-05-12 12:29:00,55.0,45.5,29.06,West,270,0.0,0.0,70,0.00,,---,0.00,VWS V14.00,2013-05-12 17:29:00,
2013-05-12 12:30:00,55.0,45.5,29.12,West,270,0.0,0.0,70,0.00,,---,0.00,VWS V14.00,2013-05-12 17:30:00,
2013-05-12 12:31:00,55.0,45.5,29.06,West,270,0.0,0.0,70,0.00,,---,0.00,VWS V14.00,2013-05-12 17:31:00,
2013-05-12 12:32:00,55.0,45.5,29.06,West,270,0.0,0.0,70,0.00,,---,0.00,VWS V14.00,2013-05-12 17:32:00,
2013-05-12 12:33:00,55.0,45.5,29.12,West,270,0.0,0.0,70,0.00,,---,0.00,VWS V14.00,2013-05-12 17:33:00,
2013-05-12 12:34:00,55.0,45.5,29.12,West,270,0.0,0.0,70,0.00,,---,0.00,VWS V14.00,2013-05-12 17:34:00,
2013-05-12 12:35:00,55.0,45.5,29.12,West,270,0.0,0.0,70,0.00,,---,0.00,VWS V14.00,2013-05-12 17:35:00,
2013-05-12 12:36:00,55.0,45.5,29.12,West,270,0.0,0.0,70,0.00,,---,0.00,VWS V14.00,2013-05-12 17:36:00,
2013-05-12 12:37:00,55.0,45.5,29.12,West,270,0.0,0.0,70,0.00,,---,0.00,VWS V14.00,2013-05-12 17:37:00,
2013-05-12 12:38:00,55.0,45.5,29.12,West,270,0.0,0.0,70,0.00,,---,0.00,VWS V14.00,2013-05-12 17:38:00,
2013-05-12 12:39:00,55.0,45.5,29.12,West,270,0.0,0.0,70,0.00,,---,0.00,VWS V14.00,2013-05-12 17:39:00,
2013-05-12 12:40:00,55.0,45.5,29.12,West,270,0.0,0.0,70,0.00,,---,0.00,VWS V14.00,2013-05-12 17:40:00,
2013-05-12 12:41:00,55.0,45.5,29.12,West,270,0.0,0.0,70,0.00,,---,0.00,VWS V14.00,2013-05-12 17:41:00,
2013-05-12 12:42:00,55.0,45.5,29.12,West,270,0.0,0.0,70,0.00,,---,0.00,VWS V14.00,2013-05-12 17:42:00,
2013-05-12 12:43:00,55.0,45.5,29.12,West,270,0.0,0.0,70,0.00,,---,0.00,VWS V14.00,2013-05-12 17:43:00,
2013-05-12 12:44:00,55.0,45.5,29.12,West,270,0.0,0.0,70,0.00,,---,0.00,VWS V14.00,2013-05-12 17:44:00,
2013-05-12 12:45:00,55.0,45.5,29.12,West,270,0.0,0.0,70,0.00,,---,0.00,VWS V14.00,2013-05-12 17:45:00,
2013-05-12 12:46:00,55.0,45.5,29.12,West,270,0.0,0.0,70,0.00,,---,0.00,VWS V14.00,2013-05-12 17:46:00,
2013-05-12 12:47:00,55.0,45.5,29.12,West,270,0.0,0.0,70,0.00,,---,0.00,VWS V14.00,2013-05-12 17:47:00,
2013-05-12 12:48:00,55.0,45.5,29.12,West,270,0.0,0.0,70,0.00,,---,0.00,VWS V14.00,2013-05-12 17:48:00,
2013-05-12 12:49:00,55.0,45.5,29.12,West,270,0.0,0.0,70,0.00,,---,0.00,VWS V14.00,2013-05-12 17:49:00,
2013-05-12 12:50:00,55.0,45.5,29.12,West,270,0.0,0.0,70,0.00,,---,0.00,VWS V14.00,2013-05-12 17:50:00,
2013-05-12 12:51:00,55.0,45.5,29.12,West,270,0.0,0.0,70,0.00,,---,0.00,VWS V14.00,2013-05-12 17:51:00,
2013-05-12 12:52:00,55.0,45.5,29.12,West,270,0.0,0.0,70,0.00,,---,0.00,VWS V14.00,2013-05-12 17:52:00,
2013-05-12 12:53:00,55.0,45.5,29.12,West,270,0.0,0.0,70,0.00,,---,0.00,VWS V14.00,2013-05-12 17:53:00,
2013-05-12 12:54:00,55.0,45.5,29.12,West,270,0.0,0.0,70,0.00,,---,0.00,VWS V14.00,2013-05-12 17:54:00,
2013-05-12 12:55:00,55.0,45.5,29.12,West,270,0.0,0.0,70,0.00,,---,0.00,VWS V14.00,2013-05-12 17:55:00,
2013-05-12 12:56:00,55.0,45.5,29.12,West,270,0.0,0.0,70,0.00,,---,0.00,VWS V14.00,2013-05-12 17:56:00,
2013-05-12 12:57:00,55.0,45.5,29.12,West,270,0.0,0.0,70,0.00,,---,0.00,VWS V14.00,2013-05-12 17:57:00,
2013-05-12 12:58:00,55.0,45.5,29.12,West,270,0.0,0.0,70,0.00,,---,0.00,VWS V14.00,2013-05-12 17:58:00,
2013-05-12 12:59:00,55.0,45.5,29.12,West,270,0.0,0.0,70,0.00,,---,0.00,VWS V14.00,2013-05-12 17:59:00,
2013-05-12 13:00:00,55.0,45.5,29.12,West,270,0.0,0.0,70,0.00,,---,0.00,VWS V14.00,2013-05-12 18:00:00,
2013-05-12 13:01:00,55.0,45.5,29.12,West,270,0.0,0.0,70,0.00,,---,0.00,VWS V14.00,2013-05-12 18:01:00,
2013-05-12 13:02:00,55.0,45.5,29.12,West,270,0.0,0.0,70,0.00,,---,0.00,VWS V14.00,2013-05-12 18:02:00,
2013-05-12 13:03:00,55.0,45.5,29.12,West,270,0.0,0.0,70,0.00,,---,0.00,VWS V14.00,2013-05-12 18:03:00,
2013-05-12 13:04:00,55.0,45.5,29.12,West,270,0.0,0.0,70,0.00,,---,0.00,VWS V14.00,2013-05-12 18:04:00,
2013-05-12 13:05:00,55.0,45.5,29.12,West,270,0.0,0.0,70,0.00,,---,0.00,VWS V14.00,2013-05-12 18:05:00,
2013-05-12 13:06:00,55.0,45.5,29.12,West,270,0.0,0.0,70,0.00,,---,0.00,VWS V14.00,2013-05-12 18:06:00,
2013-05-12 13:07:00,55.0,45.5,29.12,West,270,0.0,0.0,70,0.00,,---,0.00,VWS V14.00,2013-05-12 18:07:00,
2013-05-12 13:08:00,55.0,45.5,29.12,West,270,0.0,0.0,70,0.00,,---,0.00,VWS V14.00,2013-05-12 18:08:00,
2013-05-12 13:09:00,55.0,45.5,29.12,West,270,0.0,0.0,70,0.00,,---,0.00,VWS V14.00,2013-05-12 18:09:00,
2013-05-12 13:10:00,55.0,45.5,29.12,West,270,0.0,0.0,70,0.00,,---,0.00,VWS V14.00,2013-05-12 18:10:00,
2013-05-12 13:11:00,55.0,45.5,29.12,West,270,0.0,0.0,70,0.00,,---,0.00,VWS V14.00,2013-05-12 18:11:00,
2013-05-12 13:12:00,55.0,45.5,29.12,West,270,0.0,0.0,70,0.00,,---,0.00,VWS V14.00,2013-05-12 18:12:00,
2013-05-12 13:13:00,55.0,45.5,29.12,West,270,0.0,0.0,70,0.00,,---,0.00,VWS V14.00,2013-05-12 18:13:00,
2013-05-12 13:14:00,55.0,45.5,29.12,West,270,0.0,0.0,70,0.00,,---,0.00,VWS V14.00,2013-05-12 18:14:00,
2013-05-12 13:15:00,55.0,45.5,29.12,West,270,0.0,0.0,70,0.00,,---,0.00,VWS V14.00,2013-05-12 18:15:00,
2013-05-12 13:16:00,55.0,45.5,29.12,West,270,0.0,0.0,70,0.00,,---,0.00,VWS V14.00,2013-05-12 18:16:00,
2013-05-12 13:17:00,55.0,45.5,29.12,West,270,0.0,0.0,70,0.00,,---,0.00,VWS V14.00,2013-05-12 18:17:00,
2013-05-12 13:18:00,55.0,45.5,29.12,West,270,0.0,0.0,70,0.00,,---,0.00,VWS V14.00,2013-05-12 18:18:00,
2013-05-12 13:19:00,55.0,45.5,29.12,West,270,0.0,0.0,70,0.00,,---,0.00,VWS V14.00,2013-05-12 18:19:00,
2013-05-12 13:20:00,57.2,46.8,29.12,West,270,0.0,0.0,68,0.00,,---,0.00,VWS V14.00,2013-05-12 18:20:00,
2013-05-12 13:21:00,57.2,46.8,29.12,West,270,0.0,0.0,68,0.00,,---,0.00,VWS V14.00,2013-05-12 18:21:00,
2013-05-12 13:22:00,57.2,46.8,29.12,West,270,0.0,0.0,68,0.00,,---,0.00,VWS V14.00,2013-05-12 18:22:00,
2013-05-12 13:23:00,57.2,46.8,29.12,West,270,0.0,0.0,68,0.00,,---,0.00,VWS V14.00,2013-05-12 18:23:00,
2013-05-12 13:24:00,57.2,46.8,29.12,West,270,0.0,0.0,68,0.00,,---,0.00,VWS V14.00,2013-05-12 18:24:00,
2013-05-12 13:25:00,57.2,46.8,29.12,West,270,0.0,0.0,68,0.00,,---,0.00,VWS V14.00,2013-05-12 18:25:00,
2013-05-12 13:26:00,57.2,46.8,29.12,West,270,0.0,0.0,68,0.00,,---,0.00,VWS V14.00,2013-05-12 18:26:00,
2013-05-12 13:27:00,57.2,46.8,29.12,West,270,0.0,0.0,68,0.00,,---,0.00,VWS V14.00,2013-05-12 18:27:00,
2013-05-12 13:28:00,57.2,46.8,29.12,West,270,0.0,0.0,68,0.00,,---,0.00,VWS V14.00,2013-05-12 18:28:00,
2013-05-12 13:29:00,57.2,46.8,29.12,West,270,0.0,0.0,68,0.00,,---,0.00,VWS V14.00,2013-05-12 18:29:00,
2013-05-12 13:30:00,57.2,46.8,29.12,West,270,0.0,0.0,68,0.00,,---,0.00,VWS V14.00,2013-05-12 18:30:00,
2013-05-12 13:31:00,57.2,46.8,29.12,West,270,0.0,0.0,68,0.00,,---,0.00,VWS V14.00,2013-05-12 18:31:00,
2013-05-12 13:32:00,57.2,46.8,29.12,West,270,0.0,0.0,68,0.00,,---,0.00,VWS V14.00,2013-05-12 18:32:00,
2013-05-12 13:33:00,57.2,46.8,29.12,West,270,0.0,0.0,68,0.00,,---,0.00,VWS V14.00,2013-05-12 18:33:00,
2013-05-12 13:34:00,57.2,46.8,29.12,West,270,0.0,0.0,68,0.00,,---,0.00,VWS V14.00,2013-05-12 18:34:00,
2013-05-12 13:35:00,57.2,46.8,29.12,West,270,0.0,0.0,68,0.00,,---,0.00,VWS V14.00,2013-05-12 18:35:00,
2013-05-12 13:36:00,57.2,46.8,29.12,West,270,0.0,0.0,68,0.00,,---,0.00,VWS V14.00,2013-05-12 18:36:00,
2013-05-12 13:37:00,57.2,46.8,29.12,West,270,0.0,0.0,68,0.00,,---,0.00,VWS V14.00,2013-05-12 18:37:00,
2013-05-12 13:38:00,57.2,46.8,29.12,West,270,0.0,0.0,68,0.00,,---,0.00,VWS V14.00,2013-05-12 18:38:00,
2013-05-12 13:39:00,57.2,46.8,29.12,West,270,0.0,0.0,68,0.00,,---,0.00,VWS V14.00,2013-05-12 18:39:00,
2013-05-12 13:40:00,57.2,46.8,29.12,West,270,0.0,0.0,68,0.00,,---,0.00,VWS V14.00,2013-05-12 18:40:00,
2013-05-12 13:41:00,57.2,46.8,29.12,West,270,0.0,0.0,68,0.00,,---,0.00,VWS V14.00,2013-05-12 18:41:00,
2013-05-12 13:42:00,57.2,46.8,29.12,West,270,0.0,0.0,68,0.00,,---,0.00,VWS V14.00,2013-05-12 18:42:00,
2013-05-12 13:43:00,57.2,46.8,29.12,West,270,0.0,0.0,68,0.00,,---,0.00,VWS V14.00,2013-05-12 18:43:00,
2013-05-12 13:44:00,57.2,46.8,29.12,West,270,0.0,0.0,68,0.00,,---,0.00,VWS V14.00,2013-05-12 18:44:00,
2013-05-12 13:45:00,57.2,46.8,29.12,West,270,0.0,0.0,68,0.00,,---,0.00,VWS V14.00,2013-05-12 18:45:00,
2013-05-12 13:46:00,57.2,46.8,29.12,West,270,0.0,0.0,68,0.00,,---,0.00,VWS V14.00,2013-05-12 18:46:00,
2013-05-12 13:47:00,57.2,46.8,29.12,West,270,0.0,0.0,68,0.00,,---,0.00,VWS V14.00,2013-05-12 18:47:00,
2013-05-12 13:48:00,57.2,46.8,29.12,West,270,0.0,0.0,68,0.00,,---,0.00,VWS V14.00,2013-05-12 18:48:00,
2013-05-12 13:49:00,57.2,46.8,29.12,West,270,0.0,0.0,68,0.00,,---,0.00,VWS V14.00,2013-05-12 18:49:00,
2013-05-12 13:50:00,57.2,46.8,29.12,West,270,0.0,0.0,68,0.00,,---,0.00,VWS V14.00,2013-05-12 18:50:00,
2013-05-12 13:51:00,57.2,46.8,29.12,West,270,0.0,0.0,68,0.00,,---,0.00,VWS V14.00,2013-05-12 18:51:00,
2013-05-12 13:52:00,57.2,46.8,29.12,West,270,0.0,0.0,68,0.00,,---,0.00,VWS V14.00,2013-05-12 18:52:00,
2013-05-12 13:53:00,57.2,46.8,29.12,West,270,0.0,0.0,68,0.00,,---,0.00,VWS V14.00,2013-05-12 18:53:00,
2013-05-12 13:54:00,57.2,46.8,29.12,West,270,0.0,0.0,68,0.00,,---,0.00,VWS V14.00,2013-05-12 18:54:00,
2013-05-12 13:55:00,57.2,46.8,29.12,West,270,0.0,0.0,68,0.00,,---,0.00,VWS V14.00,2013-05-12 18:55:00,
2013-05-12 13:56:00,57.2,46.8,29.12,West,270,0.0,0.0,68,0.00,,---,0.00,VWS V14.00,2013-05-12 18:56:00,
2013-05-12 13:57:00,57.2,46.8,29.12,West,270,0.0,0.0,68,0.00,,---,0.00,VWS V14.00,2013-05-12 18:57:00,
2013-05-12 13:58:00,57.2,46.8,29.12,West,270,0.0,0.0,68,0.00,,---,0.00,VWS V14.00,2013-05-12 18:58:00,
2013-05-12 13:59:00,57.2,46.8,29.12,West,270,0.0,0.0,68,0.00,,---,0.00,VWS V14.00,2013-05-12 18:59:00,
2013-05-12 14:00:00,57.2,46.8,29.12,West,270,0.0,0.0,68,0.00,,---,0.00,VWS V14.00,2013-05-12 19:00:00,
2013-05-12 14:01:00,57.2,46.8,29.12,West,270,0.0,0.0,68,0.00,,---,0.00,VWS V14.00,2013-05-12 19:01:00,
2013-05-12 14:02:00,57.2,46.8,29.12,West,270,0.0,0.0,68,0.00,,---,0.00,VWS V14.00,2013-05-12 19:02:00,
2013-05-12 14:03:00,57.2,46.8,29.12,West,270,0.0,0.0,68,0.00,,---,0.00,VWS V14.00,2013-05-12 19:03:00,
2013-05-12 14:04:00,57.2,46.8,29.12,West,270,0.0,0.0,68,0.00,,---,0.00,VWS V14.00,2013-05-12 19:04:00,
2013-05-12 14:05:00,57.2,46.8,29.12,West,270,0.0,0.0,68,0.00,,---,0.00,VWS V14.00,2013-05-12 19:05:00,
2013-05-12 14:06:00,57.2,46.8,29.12,West,270,0.0,0.0,68,0.00,,---,0.00,VWS V14.00,2013-05-12 19:06:00,
2013-05-12 14:07:00,57.2,46.8,29.12,West,270,0.0,0.0,68,0.00,,---,0.00,VWS V14.00,2013-05-12 19:07:00,
2013-05-12 14:08:00,57.2,46.8,29.12,West,270,0.0,0.0,68,0.00,,---,0.00,VWS V14.00,2013-05-12 19:08:00,
2013-05-12 14:09:00,57.2,46.8,29.12,West,270,0.0,0.0,68,0.00,,---,0.00,VWS V14.00,2013-05-12 19:09:00,
2013-05-12 14:10:00,57.2,46.8,29.12,West,270,0.0,0.0,68,0.00,,---,0.00,VWS V14.00,2013-05-12 19:10:00,
2013-05-12 14:11:00,57.2,46.8,29.12,West,270,0.0,0.0,68,0.00,,---,0.00,VWS V14.00,2013-05-12 19:11:00,
2013-05-12 14:12:00,57.2,46.8,29.12,West,270,0.0,0.0,68,0.00,,---,0.00,VWS V14.00,2013-05-12 19:12:00,
2013-05-12 14:13:00,57.2,46.8,29.12,West,270,0.0,0.0,68,0.00,,---,0.00,VWS V14.00,2013-05-12 19:13:00,
2013-05-12 14:14:00,57.2,46.8,29.12,West,270,0.0,0.0,68,0.00,,---,0.00,VWS V14.00,2013-05-12 19:14:00,
2013-05-12 14:15:00,57.2,46.8,29.12,West,270,0.0,0.0,68,0.00,,---,0.00,VWS V14.00,2013-05-12 19:15:00,
2013-05-12 14:16:00,57.2,46.8,29.12,West,270,0.0,0.0,68,0.00,,---,0.00,VWS V14.00,2013-05-12 19:16:00,
2013-05-12 14:17:00,57.2,46.8,29.12,West,270,0.0,0.0,68,0.00,,---,0.00,VWS V14.00,2013-05-12 19:17:00,
2013-05-12 14:18:00,57.2,46.8,29.12,West,270,0.0,0.0,68,0.00,,---,0.00,VWS V14.00,2013-05-12 19:18:00,
2013-05-12 14:19:00,57.2,46.8,29.12,West,270,0.0,0.0,68,0.00,,---,0.00,VWS V14.00,2013-05-12 19:19:00,
2013-05-12 14:20:00,57.2,46.8,29.12,West,270,0.0,0.0,68,0.00,,---,0.00,VWS V14.00,2013-05-12 19:20:00,
2013-05-12 14:21:00,57.2,46.8,29.12,West,270,0.0,0.0,68,0.00,,---,0.00,VWS V14.00,2013-05-12 19:21:00,
2013-05-12 14:22:00,57.2,46.8,29.12,West,270,0.0,0.0,68,0.00,,---,0.00,VWS V14.00,2013-05-12 19:22:00,
2013-05-12 14:23:00,57.2,46.8,29.12,West,270,0.0,0.0,68,0.00,,---,0.00,VWS V14.00,2013-05-12 19:23:00,
2013-05-12 14:24:00,57.2,46.8,29.12,West,270,0.0,0.0,68,0.00,,---,0.00,VWS V14.00,2013-05-12 19:24:00,
2013-05-12 14:25:00,57.2,46.8,29.12,West,270,0.0,0.0,68,0.00,,---,0.00,VWS V14.00,2013-05-12 19:25:00,
2013-05-12 14:26:00,57.2,46.8,29.12,West,270,0.0,0.0,68,0.00,,---,0.00,VWS V14.00,2013-05-12 19:26:00,
2013-05-12 14:27:00,57.2,46.8,29.12,West,270,0.0,0.0,68,0.00,,---,0.00,VWS V14.00,2013-05-12 19:27:00,
2013-05-12 14:28:00,57.2,46.8,29.12,West,270,0.0,0.0,68,0.00,,---,0.00,VWS V14.00,2013-05-12 19:28:00,
2013-05-12 14:29:00,57.2,46.8,29.12,West,270,0.0,0.0,68,0.00,,---,0.00,VWS V14.00,2013-05-12 19:29:00,
2013-05-12 14:30:00,57.2,46.8,29.12,West,270,0.0,0.0,68,0.00,,---,0.00,VWS V14.00,2013-05-12 19:30:00,
2013-05-12 14:31:00,57.2,46.8,29.12,West,270,0.0,0.0,68,0.00,,---,0.00,VWS V14.00,2013-05-12 19:31:00,
2013-05-12 14:32:00,57.2,46.8,29.12,West,270,0.0,0.0,68,0.00,,---,0.00,VWS V14.00,2013-05-12 19:32:00,
2013-05-12 14:33:00,57.2,46.8,29.12,West,270,0.0,0.0,68,0.00,,---,0.00,VWS V14.00,2013-05-12 19:33:00,
2013-05-12 14:34:00,57.2,46.8,29.12,West,270,0.0,0.0,68,0.00,,---,0.00,VWS V14.00,2013-05-12 19:34:00,
2013-05-12 14:35:00,57.2,46.8,29.12,West,270,0.0,0.0,68,0.00,,---,0.00,VWS V14.00,2013-05-12 19:35:00,
2013-05-12 14:36:00,57.2,46.8,29.12,West,270,0.0,0.0,68,0.00,,---,0.00,VWS V14.00,2013-05-12 19:36:00,
2013-05-12 14:37:00,57.2,46.8,29.12,West,270,0.0,0.0,68,0.00,,---,0.00,VWS V14.00,2013-05-12 19:37:00,
2013-05-12 14:38:00,57.2,46.8,29.12,West,270,0.0,0.0,68,0.00,,---,0.00,VWS V14.00,2013-05-12 19:38:00,
2013-05-12 14:39:00,57.2,46.8,29.12,West,270,0.0,0.0,68,0.00,,---,0.00,VWS V14.00,2013-05-12 19:39:00,
2013-05-12 14:40:00,57.2,46.8,29.12,West,270,0.0,0.0,68,0.00,,---,0.00,VWS V14.00,2013-05-12 19:40:00,
2013-05-12 14:41:00,57.2,46.8,29.12,West,270,0.0,0.0,68,0.00,,---,0.00,VWS V14.00,2013-05-12 19:41:00,
2013-05-12 14:42:00,57.2,46.8,29.12,West,270,0.0,0.0,68,0.00,,---,0.00,VWS V14.00,2013-05-12 19:42:00,
2013-05-12 14:43:00,57.2,46.8,29.12,West,270,0.0,0.0,68,0.00,,---,0.00,VWS V14.00,2013-05-12 19:43:00,
2013-05-12 14:44:00,57.2,46.8,29.12,West,270,0.0,0.0,68,0.00,,---,0.00,VWS V14.00,2013-05-12 19:44:00,
2013-05-12 14:45:00,57.2,46.8,29.12,West,270,0.0,0.0,68,0.00,,---,0.00,VWS V14.00,2013-05-12 19:45:00,
2013-05-12 14:46:00,57.2,46.8,29.12,West,270,0.0,0.0,68,0.00,,---,0.00,VWS V14.00,2013-05-12 19:46:00,
2013-05-12 14:47:00,57.2,46.8,29.12,West,270,0.0,0.0,68,0.00,,---,0.00,VWS V14.00,2013-05-12 19:47:00,
2013-05-12 14:48:00,57.2,46.8,29.12,West,270,0.0,0.0,68,0.00,,---,0.00,VWS V14.00,2013-05-12 19:48:00,
2013-05-12 14:49:00,57.2,46.8,29.12,West,270,0.0,0.0,68,0.00,,---,0.00,VWS V14.00,2013-05-12 19:49:00,
2013-05-12 14:50:00,57.2,46.8,29.12,West,270,0.0,0.0,68,0.00,,---,0.00,VWS V14.00,2013-05-12 19:50:00,
2013-05-12 14:51:00,57.2,46.8,29.12,West,270,0.0,0.0,68,0.00,,---,0.00,VWS V14.00,2013-05-12 19:51:00,
2013-05-12 14:52:00,57.2,46.8,29.12,West,270,0.0,0.0,68,0.00,,---,0.00,VWS V14.00,2013-05-12 19:52:00,
2013-05-12 14:53:00,57.2,46.8,29.12,West,270,0.0,0.0,68,0.00,,---,0.00,VWS V14.00,2013-05-12 19:53:00,
2013-05-12 14:54:00,57.2,46.8,29.12,West,270,0.0,0.0,68,0.00,,---,0.00,VWS V14.00,2013-05-12 19:54:00,
2013-05-12 14:55:00,57.2,46.8,29.12,NW,321,3.1,3.1,68,0.00,,---,0.00,VWS V14.00,2013-05-12 19:55:00,
2013-05-12 15:04:00,59.0,48.5,29.12,NNW,328,6.3,6.3,68,0.00,,---,0.00,VWS V14.00,2013-05-12 20:04:00,
2013-05-12 15:09:00,58.1,47.6,29.12,NW,316,5.4,8.3,68,0.00,,---,0.00,VWS V14.00,2013-05-12 20:09:00,
2013-05-12 15:14:00,57.6,47.1,29.12,WSW,256,5.8,7.2,68,0.00,,---,0.00,VWS V14.00,2013-05-12 20:14:00,
2013-05-12 15:19:00,55.2,45.6,29.12,WNW,294,5.8,5.8,70,0.00,,---,0.00,VWS V14.00,2013-05-12 20:19:00,
2013-05-12 15:24:00,54.9,45.3,29.12,NW,314,5.4,5.4,70,0.00,,---,0.00,VWS V14.00,2013-05-12 20:24:00,
2013-05-12 15:29:00,55.2,45.6,29.12,NNW,344,3.1,3.1,70,0.00,,---,0.00,VWS V14.00,2013-05-12 20:29:00,
2013-05-12 15:34:00,55.0,45.5,29.12,North,0,0.0,0.0,70,0.00,,---,0.00,VWS V14.00,2013-05-12 20:34:00,
2013-05-12 15:39:00,55.8,46.1,29.12,North,0,6.3,6.3,70,0.00,,---,0.00,VWS V14.00,2013-05-12 20:39:00,
2013-05-12 15:44:00,59.0,48.5,29.12,NW,324,6.3,8.7,68,0.00,,---,0.00,VWS V14.00,2013-05-12 20:44:00,
2013-05-12 15:49:00,56.1,46.5,29.12,West,278,3.6,3.6,70,0.00,,---,0.00,VWS V14.00,2013-05-12 20:49:00,
2013-05-12 15:54:00,56.5,46.8,29.12,SW,230,4.9,6.3,70,0.00,,---,0.00,VWS V14.00,2013-05-12 20:54:00,
2013-05-12 15:59:00,54.3,44.8,29.12,NW,324,3.1,5.8,70,0.00,,---,0.00,VWS V14.00,2013-05-12 20:59:00,
2013-05-12 16:04:00,53.6,44.1,29.12,NW,311,5.4,5.4,70,0.00,,---,0.00,VWS V14.00,2013-05-12 21:04:00,
2013-05-12 16:09:00,60.1,49.5,29.12,WNW,292,6.3,6.3,68,0.00,,---,0.00,VWS V14.00,2013-05-12 21:09:00,
2013-05-12 16:14:00,59.2,48.6,29.12,NW,307,4.9,9.6,68,0.00,,---,0.00,VWS V14.00,2013-05-12 21:14:00,
2013-05-12 16:19:00,60.4,49.8,29.12,West,275,3.6,7.6,68,0.00,,---,0.00,VWS V14.00,2013-05-12 21:19:00,
2013-05-12 16:24:00,61.7,51.0,29.12,WNW,285,4.0,6.3,68,0.00,,---,0.00,VWS V14.00,2013-05-12 21:24:00,
2013-05-12 16:29:00,61.3,50.7,29.12,West,263,9.2,9.2,68,0.00,,---,0.00,VWS V14.00,2013-05-12 21:29:00,
2013-05-12 16:34:00,56.7,47.0,29.12,WNW,302,3.1,5.4,70,0.00,,---,0.00,VWS V14.00,2013-05-12 21:34:00,
2013-05-12 16:39:00,55.8,46.1,29.12,WNW,297,2.7,3.1,70,0.00,,---,0.00,VWS V14.00,2013-05-12 21:39:00,
2013-05-12 16:44:00,54.9,45.3,29.12,WNW,291,3.6,4.0,70,0.00,,---,0.00,VWS V14.00,2013-05-12 21:44:00,
2013-05-12 16:49:00,54.5,44.9,29.12,NNW,327,4.9,4.9,70,0.00,,---,0.00,VWS V14.00,2013-05-12 21:49:00,
2013-05-12 16:54:00,53.6,44.1,29.12,NW,319,2.7,2.7,70,0.00,,---,0.00,VWS V14.00,2013-05-12 21:54:00,
2013-05-12 16:59:00,54.1,44.6,29.12,NNW,327,2.2,4.0,70,0.00,,---,0.00,VWS V14.00,2013-05-12 21:59:00,
2013-05-12 17:04:00,56.1,46.5,29.12,NNW,339,0.0,2.2,70,0.00,,---,0.00,VWS V14.00,2013-05-12 22:04:00,
2013-05-12 17:09:00,55.4,45.8,29.12,WNW,294,0.0,0.0,70,0.00,,---,0.00,VWS V14.00,2013-05-12 22:09:00,
2013-05-12 17:14:00,55.9,46.3,29.12,NW,304,4.0,5.8,70,0.00,,---,0.00,VWS V14.00,2013-05-12 22:14:00,
2013-05-12 17:19:00,55.9,46.3,29.12,NNW,330,5.4,6.3,70,0.00,,---,0.00,VWS V14.00,2013-05-12 22:19:00,
2013-05-12 17:24:00,55.4,45.8,29.12,NNW,328,3.6,5.8,70,0.00,,---,0.00,VWS V14.00,2013-05-12 22:24:00,
2013-05-12 17:29:00,54.3,44.8,29.12,NNW,328,3.6,3.6,70,0.00,,---,0.00,VWS V14.00,2013-05-12 22:29:00,
2013-05-12 17:34:00,54.7,45.1,29.12,WNW,282,2.7,2.7,70,0.00,,---,0.00,VWS V14.00,2013-05-12 22:34:00,
2013-05-12 17:39:00,55.4,45.8,29.12,North,353,3.6,4.9,70,0.00,,---,0.00,VWS V14.00,2013-05-12 22:39:00,
2013-05-12 17:44:00,55.2,45.6,29.12,WNW,294,2.7,3.6,70,0.00,,---,0.00,VWS V14.00,2013-05-12 22:44:00,
2013-05-12 17:49:00,54.3,44.8,29.12,NW,321,4.9,4.9,70,0.00,,---,0.00,VWS V14.00,2013-05-12 22:49:00,
2013-05-12 17:54:00,53.4,44.6,29.12,WNW,295,2.2,3.6,72,0.00,,---,0.00,VWS V14.00,2013-05-12 22:54:00,
2013-05-12 17:59:00,53.1,44.3,29.12,NNW,327,4.9,5.8,72,0.00,,---,0.00,VWS V14.00,2013-05-12 22:59:00,
2013-05-12 18:04:00,52.9,44.1,29.12,WNW,284,3.6,4.9,72,0.00,,---,0.00,VWS V14.00,2013-05-12 23:04:00,
2013-05-12 18:09:00,53.8,44.2,29.12,NW,311,3.1,4.0,70,0.00,,---,0.00,VWS V14.00,2013-05-12 23:09:00,
2013-05-12 18:14:00,54.5,44.9,29.12,WNW,294,0.0,0.0,70,0.00,,---,0.00,VWS V14.00,2013-05-12 23:14:00,
2013-05-12 18:19:00,53.6,44.1,29.12,NNW,337,2.7,3.1,70,0.00,,---,0.00,VWS V14.00,2013-05-12 23:19:00,
2013-05-12 18:24:00,52.9,44.1,29.12,WNW,296,3.1,4.0,72,0.00,,---,0.00,VWS V14.00,2013-05-12 23:24:00,
2013-05-12 18:29:00,52.5,43.8,29.12,NW,325,3.1,6.3,72,0.00,,---,0.00,VWS V14.00,2013-05-12 23:29:00,
2013-05-12 18:34:00,52.3,43.6,29.12,NW,307,3.1,3.1,72,0.00,,---,0.00,VWS V14.00,2013-05-12 23:34:00,
2013-05-12 18:39:00,52.2,43.4,29.12,NW,304,3.1,3.6,72,0.00,,---,0.00,VWS V14.00,2013-05-12 23:39:00,
2013-05-12 18:44:00,52.0,43.2,29.12,NW,320,3.6,4.0,72,0.00,,---,0.00,VWS V14.00,2013-05-12 23:44:00,
2013-05-12 18:49:00,51.8,43.1,29.12,WNW,296,0.0,0.0,72,0.00,,---,0.00,VWS V14.00,2013-05-12 23:49:00,
2013-05-12 18:54:00,51.8,43.1,29.12,NW,325,0.0,0.0,72,0.00,,---,0.00,VWS V14.00,2013-05-12 23:54:00,
2013-05-12 18:59:00,52.5,43.8,29.12,NW,314,0.0,0.0,72,0.00,,---,0.00,VWS V14.00,2013-05-12 23:59:00,
2013-05-12 19:04:00,54.3,44.8,29.12,NNW,328,0.0,0.0,70,0.00,,---,0.00,VWS V14.00,2013-05-13 00:04:00,
2013-05-12 19:09:00,52.3,43.6,29.12,NNW,328,0.0,2.2,72,0.00,,---,0.00,VWS V14.00,2013-05-13 00:09:00,
2013-05-12 19:14:00,51.3,42.5,29.12,NNW,328,0.0,0.0,72,0.00,,---,0.00,VWS V14.00,2013-05-13 00:14:00,
2013-05-12 19:19:00,50.7,42.0,29.12,NNW,328,0.0,0.0,72,0.00,,---,0.00,VWS V14.00,2013-05-13 00:19:00,
2013-05-12 19:24:00,50.0,41.3,29.12,WNW,291,0.0,0.0,72,0.00,,---,0.00,VWS V14.00,2013-05-13 00:24:00,
2013-05-12 19:29:00,49.6,41.0,29.12,West,279,0.0,0.0,72,0.00,,---,0.00,VWS V14.00,2013-05-13 00:29:00,
2013-05-12 19:34:00,49.3,40.7,29.12,WNW,288,0.0,0.0,72,0.00,,---,0.00,VWS V14.00,2013-05-13 00:34:00,
2013-05-12 19:39:00,49.1,40.5,29.12,WNW,288,0.0,0.0,72,0.00,,---,0.00,VWS V14.00,2013-05-13 00:39:00,
2013-05-12 19:44:00,48.7,40.1,29.12,WNW,288,0.0,0.0,72,0.00,,---,0.00,VWS V14.00,2013-05-13 00:44:00,
2013-05-12 19:49:00,48.6,40.0,29.12,NW,319,0.0,0.0,72,0.00,,---,0.00,VWS V14.00,2013-05-13 00:49:00,
2013-05-12 19:54:00,48.4,39.8,29.12,NW,319,0.0,0.0,72,0.00,,---,0.00,VWS V14.00,2013-05-13 00:54:00,
2013-05-12 19:59:00,48.2,39.6,29.12,NW,319,0.0,0.0,72,0.00,,---,0.00,VWS V14.00,2013-05-13 00:59:00,
2013-05-12 20:04:00,47.8,40.0,29.12,NW,319,0.0,0.0,74,0.00,,---,0.00,VWS V14.00,2013-05-13 01:04:00,
2013-05-12 20:09:00,47.8,40.0,29.12,NW,319,0.0,0.0,74,0.00,,---,0.00,VWS V14.00,2013-05-13 01:09:00,
2013-05-12 20:14:00,47.8,40.0,29.12,NW,319,0.0,0.0,74,0.00,,---,0.00,VWS V14.00,2013-05-13 01:14:00,
2013-05-12 20:19:00,47.7,39.8,29.12,NW,319,0.0,0.0,74,0.00,,---,0.00,VWS V14.00,2013-05-13 01:19:00,
2013-05-12 20:24:00,47.7,39.8,29.12,NW,319,0.0,0.0,74,0.00,,---,0.00,VWS V14.00,2013-05-13 01:24:00,
2013-05-12 20:29:00,47.3,39.5,29.12,NW,316,0.0,0.0,74,0.00,,---,0.00,VWS V14.00,2013-05-13 01:29:00,
2013-05-12 20:34:00,47.1,39.3,29.12,NW,316,0.0,0.0,74,0.00,,---,0.00,VWS V14.00,2013-05-13 01:34:00,
2013-05-12 20:39:00,46.9,39.1,29.12,NW,316,0.0,0.0,74,0.00,,---,0.00,VWS V14.00,2013-05-13 01:39:00,
2013-05-12 20:44:00,46.6,38.8,29.12,NW,316,0.0,0.0,74,0.00,,---,0.00,VWS V14.00,2013-05-13 01:44:00,
2013-05-12 20:49:00,46.6,38.8,29.12,NW,316,0.0,0.0,74,0.00,,---,0.00,VWS V14.00,2013-05-13 01:49:00,
2013-05-12 20:54:00,46.6,38.8,29.15,NW,316,0.0,0.0,74,0.00,,---,0.00,VWS V14.00,2013-05-13 01:54:00,
2013-05-12 20:59:00,46.4,38.6,29.15,NW,316,0.0,0.0,74,0.00,,---,0.00,VWS V14.00,2013-05-13 01:59:00,
2013-05-12 21:04:00,46.4,38.6,29.15,NW,316,0.0,0.0,74,0.00,,---,0.00,VWS V14.00,2013-05-13 02:04:00,
2013-05-12 21:09:00,46.4,38.6,29.15,NW,316,0.0,0.0,74,0.00,,---,0.00,VWS V14.00,2013-05-13 02:09:00,
2013-05-12 21:14:00,46.4,38.6,29.15,NW,316,0.0,0.0,74,0.00,,---,0.00,VWS V14.00,2013-05-13 02:14:00,
2013-05-12 21:19:00,46.4,38.6,29.15,NW,316,0.0,0.0,74,0.00,,---,0.00,VWS V14.00,2013-05-13 02:19:00,
2013-05-12 21:24:00,46.4,38.6,29.15,NW,316,0.0,0.0,74,0.00,,---,0.00,VWS V14.00,2013-05-13 02:24:00,
2013-05-12 21:29:00,46.4,38.6,29.15,NW,316,0.0,0.0,74,0.00,,---,0.00,VWS V14.00,2013-05-13 02:29:00,
2013-05-12 21:34:00,46.4,38.6,29.15,NW,316,0.0,0.0,74,0.00,,---,0.00,VWS V14.00,2013-05-13 02:34:00,
2013-05-12 21:39:00,46.4,38.6,29.15,NW,316,0.0,0.0,74,0.00,,---,0.00,VWS V14.00,2013-05-13 02:39:00,
2013-05-12 21:44:00,46.4,38.6,29.15,NW,316,0.0,0.0,74,0.00,,---,0.00,VWS V14.00,2013-05-13 02:44:00,
2013-05-12 21:49:00,46.4,38.6,29.15,NW,316,0.0,0.0,74,0.00,,---,0.00,VWS V14.00,2013-05-13 02:49:00,
2013-05-12 21:54:00,46.4,38.6,29.15,NW,316,0.0,0.0,74,0.00,,---,0.00,VWS V14.00,2013-05-13 02:54:00,
2013-05-12 21:59:00,46.4,38.6,29.15,NW,316,0.0,0.0,74,0.00,,---,0.00,VWS V14.00,2013-05-13 02:59:00,
2013-05-12 22:04:00,46.4,38.6,29.15,NW,316,0.0,0.0,74,0.00,,---,0.00,VWS V14.00,2013-05-13 03:04:00,
2013-05-12 22:09:00,46.4,38.6,29.15,NW,316,0.0,0.0,74,0.00,,---,0.00,VWS V14.00,2013-05-13 03:09:00,
2013-05-12 22:14:00,46.4,38.6,29.15,NW,316,0.0,0.0,74,0.00,,---,0.00,VWS V14.00,2013-05-13 03:14:00,
2013-05-12 22:19:00,46.4,38.6,29.15,NW,316,0.0,0.0,74,0.00,,---,0.00,VWS V14.00,2013-05-13 03:19:00,
2013-05-12 22:24:00,46.4,38.6,29.15,NW,316,0.0,0.0,74,0.00,,---,0.00,VWS V14.00,2013-05-13 03:24:00,
2013-05-12 22:29:00,46.4,38.6,29.15,NW,316,0.0,0.0,74,0.00,,---,0.00,VWS V14.00,2013-05-13 03:29:00,
2013-05-12 22:34:00,46.4,38.6,29.15,NW,316,0.0,0.0,74,0.00,,---,0.00,VWS V14.00,2013-05-13 03:34:00,
2013-05-12 22:39:00,46.4,38.6,29.15,NW,316,0.0,0.0,74,0.00,,---,0.00,VWS V14.00,2013-05-13 03:39:00,
2013-05-12 22:44:00,46.4,38.6,29.15,NW,316,0.0,0.0,74,0.00,,---,0.00,VWS V14.00,2013-05-13 03:44:00,
2013-05-12 22:49:00,46.4,38.6,29.15,NW,316,0.0,0.0,74,0.00,,---,0.00,VWS V14.00,2013-05-13 03:49:00,
2013-05-12 22:54:00,46.4,38.6,29.15,NW,316,0.0,0.0,74,0.00,,---,0.00,VWS V14.00,2013-05-13 03:54:00,
2013-05-12 22:59:00,46.4,38.6,29.15,NW,316,0.0,0.0,74,0.00,,---,0.00,VWS V14.00,2013-05-13 03:59:00,
2013-05-12 23:01:00,46.4,38.6,29.15,NW,316,0.0,0.0,74,0.00,,---,0.00,VWS V14.00,2013-05-13 04:01:00,
2013-05-12 23:06:00,46.4,38.6,29.15,NW,316,0.0,0.0,74,0.00,,---,0.00,VWS V14.00,2013-05-13 04:06:00,
2013-05-12 23:11:00,46.4,38.6,29.15,NW,316,0.0,0.0,74,0.00,,---,0.00,VWS V14.00,2013-05-13 04:11:00,
2013-05-12 23:16:00,46.4,38.6,29.15,NW,316,0.0,0.0,74,0.00,,---,0.00,VWS V14.00,2013-05-13 04:16:00,
2013-05-12 23:21:00,46.4,38.6,29.15,NW,316,0.0,0.0,74,0.00,,---,0.00,VWS V14.00,2013-05-13 04:21:00,
2013-05-12 23:26:00,46.4,38.6,29.15,NW,316,0.0,0.0,74,0.00,,---,0.00,VWS V14.00,2013-05-13 04:26:00,
2013-05-12 23:31:00,46.4,38.6,29.15,NW,316,0.0,0.0,74,0.00,,---,0.00,VWS V14.00,2013-05-13 04:31:00,
2013-05-12 23:36:00,46.4,38.6,29.15,NW,316,0.0,0.0,74,0.00,,---,0.00,VWS V14.00,2013-05-13 04:36:00,
2013-05-12 23:41:00,46.4,38.6,29.15,NW,316,0.0,0.0,74,0.00,,---,0.00,VWS V14.00,2013-05-13 04:41:00,
2013-05-12 23:46:00,46.4,38.6,29.15,NW,316,0.0,0.0,74,0.00,,---,0.00,VWS V14.00,2013-05-13 04:46:00,
2013-05-12 23:51:00,46.4,38.6,29.15,NW,316,0.0,0.0,74,0.00,,---,0.00,VWS V14.00,2013-05-13 04:51:00,
2013-05-12 23:56:00,46.4,38.6,29.15,NW,316,0.0,0.0,74,0.00,,---,0.00,VWS V14.00,2013-05-13 04:56:00,